GEFSMW_prec_meanprecacc_006.txt.gz
Total_Precipitation_Accumulation
0.00 0.00 0.00 0.00 0.00 0.00 0.00 0.03 0.06 0.08 0.09 0.17 0.24 0.29 0.34 0.35 0.29 0.29 0.34 0.28 0.15 0.07 0.02 0.03 0.03 0.01 0.05 0.09 0.06 0.09 0.05 0.02 0.00 0.00 0.00 0.00 0.00 0.00 0.00 0.00 0.00 0.00 0.00
0.00 0.00 0.00 0.00 0.00 0.00 0.01 0.03 0.04 0.06 0.11 0.18 0.25 0.34 0.43 0.45 0.41 0.37 0.34 0.29 0.22 0.13 0.04 0.03 0.04 0.03 0.01 0.03 0.06 0.10 0.05 0.02 0.00 0.00 0.00 0.00 0.00 0.00 0.00 0.00 0.00 0.00 0.00
0.00 0.00 0.00 0.00 0.00 0.00 0.00 0.02 0.04 0.09 0.15 0.21 0.26 0.25 0.29 0.27 0.27 0.25 0.23 0.24 0.21 0.15 0.07 0.05 0.07 0.07 0.03 0.02 0.03 0.04 0.02 0.01 0.00 0.00 0.00 0.00 0.00 0.00 0.00 0.00 0.00 0.00 0.00
0.00 0.00 0.00 0.00 0.00 0.00 0.00 0.00 0.02 0.04 0.08 0.13 0.14 0.11 0.10 0.09 0.11 0.14 0.15 0.18 0.22 0.21 0.18 0.12 0.12 0.12 0.07 0.03 0.04 0.04 0.02 0.00 0.00 0.00 0.00 0.00 0.00 0.00 0.00 0.00 0.00 0.00 0.00
0.00 0.00 0.00 0.00 0.00 0.00 0.00 0.00 0.01 0.01 0.02 0.03 0.04 0.05 0.03 0.01 0.04 0.10 0.13 0.16 0.26 0.31 0.30 0.25 0.23 0.20 0.13 0.06 0.06 0.07 0.05 0.01 0.00 0.00 0.00 0.00 0.00 0.00 0.00 0.00 0.00 0.00 0.00
0.00 0.00 0.00 0.00 0.00 0.00 0.00 0.00 0.00 0.00 0.00 0.01 0.01 0.01 0.01 0.01 0.02 0.06 0.12 0.21 0.31 0.44 0.37 0.27 0.24 0.21 0.18 0.13 0.10 0.09 0.07 0.05 0.05 0.04 0.01 0.00 0.00 0.00 0.00 0.00 0.00 0.00 0.00
0.00 0.00 0.00 0.00 0.00 0.00 0.00 0.00 0.00 0.00 0.00 0.00 0.00 0.00 0.01 0.01 0.02 0.05 0.12 0.28 0.35 0.49 0.54 0.39 0.25 0.18 0.16 0.14 0.13 0.10 0.07 0.06 0.06 0.05 0.04 0.03 0.02 0.00 0.00 0.00 0.00 0.00 0.00
0.00 0.00 0.00 0.00 0.00 0.00 0.00 0.00 0.00 0.00 0.00 0.00 0.00 0.00 0.00 0.01 0.02 0.04 0.05 0.21 0.36 0.45 0.56 0.50 0.31 0.18 0.13 0.11 0.10 0.10 0.07 0.04 0.03 0.03 0.04 0.05 0.05 0.02 0.01 0.00 0.00 0.00 0.00
0.00 0.00 0.00 0.00 0.00 0.00 0.00 0.00 0.00 0.00 0.00 0.00 0.00 0.00 0.00 0.01 0.02 0.02 0.01 0.05 0.17 0.24 0.31 0.32 0.26 0.16 0.12 0.08 0.05 0.04 0.04 0.03 0.02 0.02 0.02 0.02 0.03 0.04 0.02 0.00 0.00 0.00 0.00
0.00 0.00 0.00 0.00 0.00 0.00 0.00 0.00 0.00 0.00 0.00 0.00 0.00 0.00 0.00 0.00 0.01 0.01 0.00 0.01 0.04 0.07 0.10 0.12 0.12 0.12 0.10 0.09 0.05 0.03 0.04 0.03 0.02 0.01 0.01 0.01 0.01 0.02 0.03 0.01 0.01 0.00 0.00
0.00 0.00 0.00 0.00 0.00 0.00 0.00 0.00 0.00 0.00 0.00 0.00 0.00 0.00 0.00 0.00 0.00 0.01 0.01 0.00 0.02 0.02 0.03 0.04 0.05 0.07 0.07 0.10 0.12 0.10 0.06 0.03 0.02 0.02 0.02 0.02 0.01 0.01 0.02 0.03 0.02 0.02 0.01
0.00 0.00 0.00 0.00 0.00 0.00 0.00 0.00 0.00 0.00 0.00 0.00 0.00 0.00 0.00 0.00 0.00 0.01 0.02 0.02 0.02 0.01 0.01 0.02 0.03 0.05 0.06 0.06 0.09 0.10 0.07 0.05 0.05 0.04 0.02 0.02 0.02 0.02 0.02 0.03 0.04 0.04 0.04
0.00 0.00 0.00 0.00 0.00 0.00 0.00 0.00 0.00 0.00 0.00 0.00 0.00 0.00 0.00 0.00 0.00 0.01 0.03 0.03 0.02 0.01 0.01 0.02 0.03 0.04 0.04 0.05 0.07 0.10 0.10 0.09 0.07 0.06 0.04 0.03 0.02 0.01 0.03 0.06 0.06 0.07 0.07
0.01 0.00 0.00 0.00 0.00 0.00 0.00 0.00 0.00 0.00 0.00 0.00 0.00 0.00 0.01 0.01 0.00 0.01 0.01 0.03 0.02 0.01 0.00 0.01 0.02 0.02 0.02 0.03 0.07 0.12 0.14 0.14 0.11 0.08 0.05 0.03 0.02 0.02 0.04 0.08 0.12 0.12 0.09
0.01 0.00 0.00 0.00 0.00 0.00 0.00 0.00 0.01 0.00 0.01 0.01 0.01 0.00 0.01 0.01 0.01 0.01 0.01 0.01 0.02 0.01 0.01 0.01 0.01 0.01 0.01 0.03 0.04 0.06 0.09 0.12 0.13 0.11 0.06 0.04 0.05 0.05 0.05 0.06 0.09 0.13 0.10
0.00 0.00 0.00 0.00 0.00 0.00 0.00 0.01 0.02 0.02 0.02 0.02 0.02 0.02 0.01 0.01 0.01 0.01 0.02 0.02 0.02 0.02 0.01 0.01 0.01 0.01 0.01 0.04 0.08 0.09 0.07 0.06 0.06 0.04 0.04 0.07 0.10 0.08 0.04 0.04 0.06 0.08 0.08
0.00 0.00 0.00 0.00 0.00 0.00 0.02 0.04 0.06 0.06 0.07 0.09 0.09 0.06 0.04 0.03 0.02 0.03 0.05 0.06 0.06 0.04 0.03 0.02 0.01 0.01 0.02 0.04 0.07 0.08 0.07 0.07 0.05 0.04 0.04 0.07 0.09 0.11 0.06 0.03 0.03 0.04 0.04
0.00 0.00 0.00 0.00 0.01 0.02 0.04 0.08 0.11 0.10 0.11 0.18 0.20 0.14 0.07 0.08 0.08 0.08 0.08 0.10 0.08 0.06 0.06 0.04 0.02 0.00 0.01 0.02 0.03 0.03 0.05 0.08 0.10 0.08 0.07 0.08 0.06 0.06 0.07 0.07 0.05 0.04 0.04
0.00 0.00 0.00 0.00 0.00 0.00 0.01 0.02 0.05 0.08 0.09 0.11 0.17 0.17 0.14 0.15 0.17 0.16 0.16 0.13 0.09 0.08 0.05 0.03 0.01 0.00 0.00 0.00 0.01 0.02 0.04 0.06 0.10 0.09 0.06 0.04 0.03 0.04 0.05 0.10 0.13 0.08 0.06
0.00 0.00 0.00 0.00 0.00 0.00 0.00 0.00 0.01 0.02 0.05 0.06 0.10 0.15 0.16 0.18 0.21 0.24 0.26 0.18 0.13 0.12 0.06 0.02 0.01 0.00 0.00 0.00 0.01 0.01 0.02 0.02 0.04 0.07 0.09 0.09 0.06 0.06 0.06 0.06 0.10 0.12 0.12
0.00 0.00 0.00 0.00 0.00 0.00 0.00 0.00 0.00 0.01 0.01 0.02 0.03 0.06 0.10 0.15 0.21 0.24 0.22 0.17 0.14 0.10 0.05 0.02 0.00 0.00 0.00 0.00 0.01 0.01 0.00 0.01 0.02 0.06 0.13 0.16 0.11 0.08 0.07 0.06 0.06 0.07 0.12
0.00 0.00 0.00 0.00 0.00 0.00 0.00 0.00 0.00 0.00 0.00 0.00 0.01 0.02 0.04 0.06 0.11 0.15 0.17 0.16 0.15 0.10 0.04 0.02 0.01 0.00 0.00 0.00 0.01 0.01 0.00 0.00 0.01 0.02 0.05 0.07 0.08 0.07 0.06 0.05 0.04 0.02 0.02
0.00 0.00 0.00 0.00 0.00 0.00 0.00 0.00 0.00 0.00 0.00 0.00 0.00 0.00 0.00 0.01 0.04 0.10 0.13 0.14 0.16 0.14 0.09 0.05 0.02 0.01 0.00 0.00 0.01 0.03 0.02 0.01 0.00 0.01 0.01 0.02 0.02 0.02 0.02 0.03 0.03 0.02 0.01
0.00 0.00 0.00 0.00 0.00 0.00 0.00 0.00 0.00 0.00 0.00 0.00 0.00 0.00 0.00 0.00 0.01 0.03 0.09 0.15 0.14 0.08 0.03 0.02 0.01 0.00 0.01 0.00 0.00 0.02 0.03 0.02 0.01 0.00 0.00 0.00 0.01 0.01 0.01 0.01 0.01 0.01 0.00
0.00 0.00 0.00 0.00 0.00 0.00 0.00 0.00 0.00 0.00 0.00 0.00 0.00 0.00 0.00 0.00 0.00 0.01 0.05 0.09 0.09 0.04 0.01 0.00 0.00 0.00 0.01 0.01 0.01 0.01 0.01 0.02 0.01 0.00 0.00 0.00 0.00 0.00 0.00 0.00 0.00 0.00 0.00
0.00 0.00 0.00 0.00 0.00 0.00 0.00 0.00 0.00 0.00 0.00 0.00 0.00 0.00 0.00 0.00 0.00 0.00 0.02 0.03 0.03 0.02 0.01 0.01 0.02 0.03 0.03 0.04 0.03 0.02 0.01 0.01 0.01 0.00 0.00 0.00 0.00 0.00 0.00 0.00 0.00 0.00 0.00

GEFSMW_prec_meanprecacc_012.txt.gz
Total_Precipitation_Accumulation
0.00 0.00 0.00 0.00 0.00 0.00 0.00 0.03 0.06 0.12 0.18 0.26 0.36 0.51 0.57 0.59 0.54 0.57 0.60 0.47 0.29 0.23 0.18 0.11 0.06 0.04 0.12 0.19 0.15 0.14 0.09 0.04 0.01 0.00 0.00 0.00 0.00 0.00 0.00 0.00 0.00 0.00 0.00
0.00 0.00 0.00 0.00 0.00 0.00 0.01 0.03 0.04 0.08 0.15 0.24 0.33 0.49 0.63 0.62 0.58 0.59 0.60 0.55 0.43 0.35 0.26 0.19 0.14 0.11 0.11 0.14 0.14 0.15 0.09 0.04 0.01 0.01 0.02 0.01 0.00 0.00 0.00 0.00 0.00 0.00 0.00
0.00 0.00 0.00 0.00 0.00 0.00 0.00 0.02 0.04 0.09 0.17 0.27 0.33 0.34 0.37 0.35 0.35 0.37 0.42 0.47 0.47 0.41 0.32 0.26 0.23 0.19 0.12 0.11 0.12 0.10 0.05 0.03 0.01 0.00 0.01 0.03 0.03 0.00 0.00 0.00 0.00 0.00 0.00
0.00 0.00 0.00 0.00 0.00 0.00 0.00 0.00 0.02 0.04 0.09 0.17 0.20 0.18 0.21 0.22 0.22 0.26 0.28 0.34 0.39 0.41 0.39 0.31 0.29 0.26 0.16 0.10 0.12 0.09 0.05 0.04 0.01 0.00 0.00 0.01 0.01 0.01 0.00 0.00 0.00 0.00 0.00
0.00 0.00 0.00 0.00 0.00 0.00 0.00 0.00 0.01 0.01 0.03 0.04 0.07 0.08 0.06 0.06 0.07 0.13 0.17 0.23 0.34 0.40 0.41 0.38 0.37 0.33 0.24 0.13 0.12 0.13 0.11 0.05 0.02 0.01 0.00 0.00 0.00 0.00 0.01 0.02 0.01 0.00 0.00
0.00 0.00 0.00 0.00 0.00 0.00 0.00 0.00 0.00 0.00 0.01 0.01 0.02 0.02 0.02 0.02 0.03 0.06 0.14 0.24 0.33 0.48 0.41 0.35 0.36 0.36 0.34 0.24 0.19 0.18 0.17 0.12 0.10 0.06 0.02 0.01 0.00 0.00 0.01 0.03 0.03 0.01 0.00
0.00 0.00 0.00 0.00 0.00 0.00 0.00 0.00 0.00 0.00 0.00 0.00 0.00 0.00 0.01 0.01 0.02 0.05 0.12 0.29 0.35 0.51 0.58 0.45 0.37 0.36 0.37 0.32 0.26 0.23 0.18 0.16 0.17 0.12 0.06 0.05 0.02 0.00 0.00 0.01 0.01 0.01 0.00
0.00 0.00 0.00 0.00 0.00 0.00 0.00 0.00 0.00 0.00 0.00 0.00 0.00 0.00 0.00 0.01 0.02 0.04 0.06 0.22 0.37 0.48 0.60 0.58 0.45 0.39 0.40 0.39 0.33 0.28 0.22 0.15 0.11 0.11 0.09 0.11 0.09 0.03 0.01 0.01 0.03 0.03 0.01
0.00 0.00 0.00 0.00 0.00 0.00 0.00 0.00 0.00 0.00 0.00 0.00 0.00 0.00 0.00 0.01 0.03 0.02 0.01 0.06 0.19 0.27 0.35 0.41 0.40 0.39 0.42 0.41 0.37 0.32 0.24 0.15 0.10 0.09 0.08 0.07 0.07 0.06 0.03 0.01 0.02 0.05 0.07
0.00 0.00 0.00 0.00 0.00 0.00 0.00 0.00 0.00 0.00 0.00 0.00 0.00 0.00 0.00 0.00 0.01 0.01 0.01 0.01 0.05 0.09 0.15 0.21 0.22 0.27 0.37 0.43 0.43 0.40 0.32 0.21 0.13 0.09 0.09 0.08 0.07 0.07 0.05 0.02 0.01 0.02 0.05
0.00 0.00 0.00 0.00 0.00 0.00 0.00 0.00 0.00 0.00 0.00 0.00 0.00 0.00 0.00 0.00 0.00 0.01 0.01 0.01 0.03 0.05 0.07 0.12 0.14 0.18 0.24 0.35 0.45 0.45 0.35 0.25 0.17 0.10 0.07 0.10 0.05 0.06 0.05 0.04 0.03 0.02 0.03
0.01 0.00 0.00 0.00 0.00 0.00 0.00 0.00 0.00 0.00 0.00 0.00 0.00 0.00 0.00 0.00 0.00 0.01 0.02 0.02 0.03 0.03 0.04 0.07 0.10 0.13 0.16 0.20 0.29 0.35 0.31 0.24 0.20 0.15 0.09 0.08 0.07 0.05 0.05 0.05 0.05 0.06 0.06
0.01 0.01 0.01 0.01 0.00 0.00 0.00 0.00 0.00 0.00 0.00 0.00 0.00 0.00 0.00 0.00 0.00 0.01 0.03 0.03 0.03 0.02 0.03 0.04 0.07 0.11 0.12 0.14 0.19 0.23 0.24 0.23 0.18 0.14 0.10 0.07 0.05 0.05 0.06 0.09 0.08 0.08 0.08
0.02 0.01 0.01 0.00 0.00 0.00 0.00 0.00 0.00 0.00 0.00 0.00 0.00 0.00 0.01 0.01 0.01 0.01 0.02 0.03 0.03 0.02 0.02 0.04 0.05 0.05 0.05 0.09 0.15 0.19 0.21 0.20 0.16 0.13 0.09 0.06 0.04 0.04 0.07 0.11 0.14 0.14 0.12
0.02 0.01 0.01 0.00 0.00 0.00 0.00 0.00 0.01 0.00 0.01 0.01 0.01 0.01 0.01 0.02 0.02 0.03 0.02 0.03 0.04 0.03 0.03 0.03 0.03 0.02 0.02 0.05 0.09 0.12 0.13 0.16 0.17 0.13 0.08 0.06 0.07 0.07 0.07 0.07 0.11 0.16 0.14
0.01 0.01 0.00 0.00 0.00 0.00 0.00 0.01 0.02 0.02 0.02 0.02 0.02 0.02 0.02 0.03 0.04 0.04 0.03 0.03 0.04 0.03 0.03 0.03 0.02 0.02 0.02 0.05 0.09 0.12 0.09 0.10 0.10 0.07 0.07 0.09 0.12 0.11 0.06 0.05 0.08 0.12 0.13
0.00 0.00 0.00 0.00 0.00 0.00 0.02 0.05 0.06 0.07 0.08 0.10 0.09 0.06 0.05 0.06 0.06 0.06 0.07 0.07 0.07 0.05 0.04 0.04 0.03 0.02 0.02 0.04 0.08 0.09 0.09 0.10 0.08 0.08 0.09 0.10 0.13 0.16 0.11 0.06 0.05 0.07 0.08
0.00 0.00 0.00 0.00 0.01 0.02 0.04 0.08 0.12 0.11 0.13 0.20 0.22 0.15 0.09 0.11 0.13 0.11 0.10 0.14 0.13 0.10 0.09 0.07 0.05 0.03 0.03 0.03 0.03 0.04 0.05 0.09 0.12 0.12 0.11 0.13 0.11 0.10 0.13 0.14 0.12 0.09 0.08
0.00 0.00 0.00 0.00 0.00 0.00 0.01 0.03 0.05 0.09 0.11 0.14 0.19 0.20 0.17 0.18 0.21 0.20 0.21 0.21 0.18 0.17 0.15 0.10 0.07 0.06 0.04 0.02 0.02 0.02 0.04 0.07 0.10 0.11 0.10 0.09 0.07 0.07 0.09 0.16 0.22 0.20 0.17
0.00 0.00 0.00 0.00 0.00 0.00 0.00 0.00 0.01 0.02 0.05 0.07 0.11 0.16 0.18 0.20 0.25 0.31 0.34 0.28 0.23 0.22 0.18 0.12 0.08 0.07 0.05 0.04 0.02 0.01 0.02 0.03 0.04 0.08 0.11 0.13 0.11 0.09 0.09 0.11 0.18 0.21 0.21
0.00 0.00 0.00 0.00 0.00 0.00 0.00 0.00 0.00 0.01 0.01 0.02 0.04 0.07 0.11 0.16 0.24 0.30 0.27 0.24 0.24 0.23 0.18 0.13 0.09 0.06 0.04 0.03 0.03 0.02 0.02 0.02 0.03 0.07 0.14 0.18 0.15 0.11 0.10 0.11 0.13 0.16 0.20
0.00 0.00 0.00 0.00 0.00 0.00 0.00 0.00 0.00 0.00 0.00 0.00 0.01 0.02 0.04 0.07 0.12 0.18 0.20 0.21 0.22 0.21 0.16 0.11 0.07 0.04 0.03 0.03 0.04 0.03 0.03 0.02 0.02 0.04 0.07 0.09 0.11 0.10 0.09 0.08 0.08 0.07 0.07
0.00 0.00 0.00 0.00 0.00 0.00 0.00 0.00 0.00 0.00 0.00 0.00 0.00 0.00 0.01 0.01 0.05 0.10 0.14 0.18 0.22 0.22 0.17 0.10 0.05 0.04 0.04 0.03 0.03 0.06 0.05 0.03 0.03 0.02 0.02 0.03 0.04 0.05 0.05 0.05 0.05 0.05 0.05
0.00 0.00 0.00 0.00 0.00 0.00 0.00 0.00 0.00 0.00 0.00 0.00 0.00 0.00 0.00 0.00 0.01 0.04 0.10 0.18 0.20 0.14 0.09 0.07 0.06 0.05 0.05 0.05 0.05 0.09 0.12 0.07 0.04 0.02 0.01 0.01 0.01 0.02 0.03 0.03 0.03 0.04 0.06
0.00 0.00 0.00 0.00 0.00 0.00 0.00 0.00 0.00 0.00 0.00 0.00 0.00 0.00 0.00 0.00 0.00 0.01 0.05 0.11 0.12 0.10 0.08 0.08 0.08 0.08 0.07 0.05 0.04 0.07 0.12 0.12 0.11 0.06 0.03 0.03 0.02 0.02 0.01 0.01 0.02 0.03 0.04
0.00 0.00 0.00 0.00 0.00 0.00 0.00 0.00 0.00 0.00 0.00 0.00 0.00 0.00 0.00 0.00 0.00 0.01 0.02 0.04 0.05 0.06 0.05 0.05 0.06 0.06 0.05 0.05 0.05 0.04 0.06 0.07 0.06 0.07 0.07 0.06 0.05 0.04 0.02 0.01 0.01 0.01 0.02

GEFSMW_prec_meanprecacc_018.txt.gz
Total_Precipitation_Accumulation
0.00 0.00 0.00 0.00 0.00 0.00 0.00 0.03 0.06 0.12 0.20 0.34 0.53 0.76 0.84 0.84 0.77 0.79 0.72 0.54 0.31 0.24 0.20 0.12 0.07 0.07 0.17 0.24 0.20 0.24 0.18 0.08 0.01 0.02 0.04 0.01 0.00 0.00 0.00 0.00 0.00 0.00 0.00
0.00 0.00 0.00 0.00 0.00 0.00 0.01 0.03 0.04 0.08 0.16 0.28 0.41 0.62 0.80 0.76 0.70 0.72 0.72 0.63 0.47 0.36 0.29 0.21 0.17 0.17 0.22 0.27 0.27 0.34 0.28 0.14 0.04 0.06 0.16 0.09 0.03 0.00 0.00 0.00 0.00 0.00 0.00
0.00 0.00 0.00 0.00 0.00 0.00 0.00 0.02 0.04 0.09 0.17 0.28 0.36 0.41 0.52 0.52 0.57 0.59 0.62 0.63 0.57 0.46 0.35 0.28 0.26 0.25 0.21 0.24 0.30 0.32 0.30 0.23 0.10 0.04 0.11 0.20 0.17 0.04 0.00 0.00 0.00 0.00 0.00
0.00 0.00 0.00 0.00 0.00 0.00 0.00 0.00 0.02 0.04 0.09 0.17 0.22 0.24 0.33 0.37 0.36 0.39 0.45 0.48 0.50 0.49 0.47 0.38 0.37 0.33 0.23 0.21 0.25 0.25 0.27 0.29 0.20 0.09 0.04 0.05 0.09 0.07 0.04 0.01 0.00 0.00 0.00
0.00 0.00 0.00 0.00 0.00 0.00 0.00 0.00 0.01 0.01 0.03 0.05 0.08 0.12 0.13 0.14 0.14 0.20 0.32 0.38 0.46 0.51 0.50 0.47 0.47 0.41 0.32 0.21 0.24 0.30 0.33 0.27 0.22 0.15 0.09 0.05 0.03 0.02 0.08 0.10 0.03 0.00 0.00
0.00 0.00 0.00 0.00 0.00 0.00 0.00 0.00 0.00 0.00 0.01 0.01 0.02 0.03 0.06 0.06 0.08 0.14 0.25 0.37 0.46 0.60 0.53 0.44 0.46 0.46 0.43 0.35 0.32 0.36 0.41 0.37 0.36 0.25 0.14 0.09 0.05 0.02 0.05 0.12 0.11 0.03 0.00
0.00 0.00 0.00 0.00 0.00 0.00 0.00 0.00 0.00 0.00 0.00 0.00 0.00 0.01 0.01 0.02 0.04 0.08 0.18 0.36 0.43 0.59 0.67 0.57 0.51 0.50 0.48 0.43 0.42 0.45 0.44 0.43 0.48 0.38 0.22 0.15 0.07 0.02 0.01 0.05 0.08 0.09 0.03
0.00 0.00 0.00 0.00 0.00 0.00 0.00 0.00 0.00 0.00 0.00 0.00 0.00 0.00 0.00 0.01 0.03 0.05 0.09 0.27 0.43 0.53 0.65 0.66 0.59 0.57 0.59 0.56 0.50 0.51 0.46 0.40 0.40 0.39 0.32 0.31 0.18 0.07 0.02 0.04 0.14 0.20 0.16
0.00 0.00 0.00 0.00 0.00 0.00 0.00 0.00 0.00 0.00 0.00 0.00 0.00 0.00 0.00 0.01 0.03 0.03 0.03 0.10 0.23 0.30 0.38 0.45 0.48 0.53 0.58 0.58 0.55 0.54 0.49 0.40 0.39 0.40 0.38 0.33 0.24 0.13 0.05 0.02 0.07 0.19 0.26
0.02 0.01 0.00 0.00 0.00 0.00 0.00 0.00 0.00 0.00 0.00 0.00 0.00 0.00 0.00 0.00 0.01 0.02 0.02 0.02 0.07 0.11 0.18 0.26 0.29 0.35 0.47 0.55 0.58 0.59 0.57 0.49 0.43 0.42 0.43 0.42 0.35 0.27 0.15 0.07 0.04 0.08 0.20
0.11 0.08 0.05 0.03 0.01 0.00 0.00 0.00 0.00 0.00 0.00 0.00 0.00 0.00 0.00 0.00 0.01 0.01 0.01 0.01 0.03 0.06 0.10 0.17 0.21 0.23 0.29 0.42 0.57 0.64 0.62 0.56 0.50 0.45 0.44 0.44 0.36 0.35 0.26 0.17 0.11 0.09 0.15
0.05 0.04 0.04 0.02 0.01 0.00 0.00 0.00 0.00 0.00 0.00 0.00 0.00 0.00 0.00 0.00 0.00 0.01 0.02 0.02 0.03 0.04 0.05 0.12 0.19 0.21 0.23 0.28 0.40 0.52 0.55 0.54 0.53 0.49 0.42 0.40 0.35 0.33 0.29 0.24 0.19 0.16 0.14
0.02 0.02 0.02 0.01 0.00 0.00 0.00 0.00 0.01 0.01 0.00 0.00 0.00 0.00 0.00 0.00 0.00 0.01 0.03 0.03 0.04 0.04 0.04 0.08 0.14 0.20 0.21 0.23 0.26 0.33 0.40 0.42 0.41 0.41 0.38 0.33 0.28 0.26 0.26 0.25 0.20 0.17 0.15
0.03 0.02 0.01 0.00 0.00 0.00 0.00 0.00 0.01 0.00 0.00 0.00 0.00 0.00 0.01 0.01 0.01 0.01 0.02 0.03 0.04 0.04 0.04 0.09 0.10 0.10 0.11 0.15 0.20 0.24 0.26 0.28 0.27 0.27 0.24 0.21 0.18 0.17 0.19 0.22 0.24 0.23 0.22
0.02 0.01 0.01 0.00 0.00 0.00 0.00 0.00 0.01 0.01 0.02 0.01 0.01 0.01 0.01 0.02 0.02 0.03 0.02 0.03 0.05 0.05 0.05 0.07 0.06 0.05 0.06 0.09 0.15 0.18 0.17 0.19 0.20 0.18 0.13 0.12 0.13 0.13 0.13 0.13 0.19 0.28 0.30
0.01 0.01 0.00 0.00 0.00 0.00 0.00 0.01 0.02 0.03 0.03 0.03 0.02 0.02 0.02 0.03 0.04 0.05 0.04 0.03 0.05 0.05 0.07 0.07 0.08 0.07 0.06 0.13 0.17 0.17 0.12 0.14 0.13 0.09 0.09 0.11 0.14 0.12 0.07 0.07 0.11 0.21 0.28
0.01 0.00 0.00 0.00 0.00 0.01 0.02 0.05 0.06 0.08 0.09 0.10 0.09 0.06 0.06 0.07 0.08 0.09 0.09 0.11 0.12 0.11 0.10 0.09 0.09 0.08 0.11 0.11 0.10 0.11 0.11 0.12 0.11 0.09 0.11 0.12 0.13 0.17 0.12 0.08 0.06 0.08 0.11
0.02 0.01 0.01 0.01 0.02 0.02 0.04 0.09 0.12 0.12 0.14 0.21 0.24 0.17 0.12 0.15 0.18 0.18 0.18 0.24 0.23 0.18 0.19 0.17 0.12 0.12 0.17 0.11 0.05 0.04 0.06 0.10 0.13 0.13 0.12 0.14 0.12 0.11 0.15 0.19 0.21 0.20 0.16
0.02 0.02 0.02 0.02 0.02 0.02 0.02 0.04 0.08 0.11 0.14 0.17 0.23 0.23 0.19 0.22 0.27 0.27 0.31 0.33 0.31 0.32 0.29 0.26 0.22 0.22 0.20 0.11 0.04 0.03 0.05 0.07 0.11 0.11 0.11 0.11 0.10 0.11 0.16 0.26 0.37 0.36 0.32
0.01 0.01 0.01 0.01 0.01 0.01 0.01 0.01 0.02 0.04 0.06 0.08 0.12 0.17 0.18 0.21 0.27 0.35 0.40 0.36 0.33 0.35 0.32 0.26 0.20 0.21 0.19 0.15 0.06 0.03 0.03 0.05 0.07 0.11 0.14 0.18 0.14 0.16 0.14 0.19 0.30 0.33 0.32
0.00 0.00 0.00 0.00 0.00 0.00 0.01 0.01 0.01 0.01 0.02 0.02 0.04 0.07 0.11 0.16 0.25 0.31 0.30 0.29 0.30 0.30 0.28 0.26 0.22 0.17 0.17 0.18 0.13 0.07 0.06 0.09 0.12 0.16 0.22 0.24 0.21 0.14 0.12 0.15 0.20 0.22 0.27
0.00 0.00 0.00 0.00 0.00 0.00 0.00 0.00 0.00 0.00 0.00 0.00 0.01 0.02 0.04 0.07 0.12 0.19 0.22 0.23 0.26 0.25 0.22 0.20 0.16 0.14 0.16 0.18 0.17 0.11 0.08 0.09 0.13 0.18 0.18 0.17 0.18 0.13 0.10 0.09 0.12 0.10 0.10
0.00 0.00 0.00 0.00 0.00 0.00 0.00 0.00 0.00 0.00 0.00 0.00 0.00 0.00 0.01 0.02 0.05 0.11 0.16 0.19 0.24 0.26 0.23 0.19 0.17 0.17 0.16 0.16 0.14 0.13 0.10 0.07 0.12 0.13 0.13 0.12 0.08 0.06 0.06 0.06 0.06 0.06 0.08
0.00 0.00 0.00 0.00 0.00 0.00 0.00 0.00 0.00 0.00 0.00 0.00 0.00 0.00 0.00 0.01 0.01 0.05 0.12 0.20 0.23 0.20 0.19 0.20 0.20 0.21 0.21 0.19 0.15 0.16 0.18 0.12 0.11 0.08 0.04 0.03 0.02 0.03 0.05 0.05 0.04 0.05 0.10
0.00 0.00 0.00 0.00 0.00 0.00 0.00 0.00 0.00 0.00 0.00 0.00 0.00 0.00 0.00 0.00 0.01 0.02 0.06 0.12 0.14 0.13 0.16 0.21 0.23 0.26 0.25 0.19 0.14 0.15 0.21 0.24 0.26 0.23 0.13 0.08 0.06 0.05 0.05 0.05 0.05 0.05 0.06
0.00 0.00 0.00 0.00 0.00 0.00 0.00 0.00 0.00 0.00 0.00 0.00 0.00 0.00 0.00 0.00 0.00 0.01 0.02 0.04 0.05 0.07 0.07 0.08 0.12 0.12 0.10 0.09 0.07 0.06 0.09 0.13 0.15 0.24 0.28 0.27 0.27 0.25 0.22 0.17 0.11 0.08 0.08

GEFSMW_prec_meanprecacc_024.txt.gz
Total_Precipitation_Accumulation
0.02 0.02 0.01 0.00 0.00 0.00 0.01 0.04 0.07 0.13 0.22 0.38 0.61 0.91 1.05 1.07 1.07 1.10 0.96 0.69 0.43 0.37 0.33 0.22 0.15 0.13 0.21 0.25 0.23 0.27 0.21 0.12 0.05 0.04 0.05 0.02 0.00 0.00 0.00 0.00 0.00 0.00 0.00
0.03 0.02 0.01 0.00 0.00 0.00 0.01 0.04 0.05 0.10 0.18 0.33 0.51 0.76 0.93 0.89 0.85 0.89 0.89 0.78 0.60 0.53 0.52 0.44 0.35 0.29 0.32 0.35 0.35 0.43 0.38 0.25 0.13 0.15 0.21 0.11 0.03 0.00 0.00 0.00 0.00 0.00 0.00
0.03 0.01 0.01 0.00 0.00 0.00 0.01 0.03 0.05 0.09 0.19 0.33 0.43 0.48 0.58 0.58 0.65 0.68 0.72 0.75 0.72 0.66 0.62 0.58 0.52 0.43 0.37 0.40 0.46 0.48 0.46 0.38 0.25 0.18 0.22 0.23 0.18 0.05 0.00 0.00 0.00 0.00 0.00
0.01 0.01 0.00 0.01 0.01 0.01 0.01 0.01 0.02 0.04 0.11 0.20 0.25 0.26 0.34 0.39 0.39 0.43 0.52 0.58 0.65 0.68 0.70 0.66 0.67 0.60 0.47 0.45 0.48 0.46 0.45 0.44 0.33 0.22 0.16 0.14 0.15 0.09 0.04 0.01 0.00 0.00 0.00
0.01 0.00 0.01 0.01 0.01 0.01 0.01 0.01 0.01 0.02 0.03 0.05 0.09 0.12 0.14 0.15 0.18 0.25 0.38 0.44 0.55 0.64 0.67 0.70 0.76 0.70 0.61 0.52 0.55 0.53 0.50 0.41 0.34 0.26 0.24 0.23 0.22 0.12 0.11 0.10 0.03 0.00 0.00
0.01 0.02 0.02 0.03 0.02 0.03 0.02 0.02 0.01 0.01 0.01 0.01 0.02 0.03 0.06 0.07 0.11 0.17 0.29 0.41 0.52 0.67 0.63 0.59 0.64 0.64 0.65 0.61 0.61 0.61 0.63 0.53 0.48 0.35 0.24 0.25 0.26 0.22 0.18 0.17 0.12 0.04 0.00
0.04 0.06 0.06 0.05 0.04 0.02 0.01 0.01 0.00 0.00 0.00 0.00 0.00 0.01 0.02 0.02 0.05 0.10 0.20 0.38 0.46 0.62 0.72 0.63 0.59 0.60 0.59 0.59 0.62 0.64 0.63 0.61 0.63 0.48 0.32 0.29 0.23 0.20 0.21 0.19 0.13 0.10 0.03
0.11 0.12 0.11 0.08 0.05 0.02 0.00 0.00 0.00 0.00 0.00 0.00 0.00 0.01 0.01 0.01 0.03 0.06 0.10 0.28 0.44 0.54 0.67 0.68 0.63 0.64 0.68 0.70 0.68 0.66 0.62 0.56 0.56 0.54 0.46 0.45 0.36 0.27 0.22 0.23 0.25 0.24 0.18
0.26 0.25 0.19 0.11 0.06 0.02 0.01 0.00 0.00 0.00 0.00 0.00 0.00 0.00 0.00 0.01 0.03 0.03 0.03 0.10 0.23 0.30 0.38 0.47 0.51 0.58 0.66 0.68 0.71 0.73 0.71 0.62 0.58 0.59 0.57 0.52 0.45 0.39 0.29 0.24 0.24 0.29 0.30
0.46 0.47 0.41 0.24 0.08 0.02 0.01 0.00 0.00 0.00 0.00 0.00 0.00 0.00 0.00 0.00 0.01 0.02 0.02 0.02 0.07 0.11 0.18 0.27 0.31 0.38 0.50 0.60 0.66 0.69 0.74 0.71 0.65 0.65 0.68 0.67 0.62 0.59 0.49 0.36 0.27 0.23 0.29
0.67 0.66 0.50 0.29 0.10 0.03 0.01 0.01 0.00 0.00 0.00 0.00 0.00 0.00 0.00 0.00 0.01 0.01 0.01 0.01 0.03 0.06 0.10 0.17 0.22 0.23 0.29 0.43 0.59 0.68 0.68 0.67 0.64 0.63 0.68 0.74 0.70 0.73 0.67 0.57 0.45 0.33 0.31
0.43 0.42 0.31 0.16 0.09 0.06 0.03 0.03 0.02 0.01 0.02 0.03 0.02 0.01 0.01 0.01 0.01 0.01 0.02 0.02 0.03 0.04 0.05 0.12 0.19 0.22 0.24 0.28 0.40 0.52 0.56 0.57 0.59 0.59 0.58 0.63 0.63 0.68 0.69 0.67 0.61 0.52 0.39
0.16 0.15 0.12 0.09 0.05 0.04 0.04 0.05 0.05 0.06 0.08 0.10 0.07 0.04 0.02 0.01 0.01 0.01 0.03 0.04 0.04 0.04 0.05 0.09 0.15 0.21 0.22 0.23 0.26 0.33 0.40 0.42 0.43 0.45 0.45 0.46 0.49 0.54 0.62 0.65 0.60 0.55 0.47
0.07 0.07 0.06 0.05 0.03 0.03 0.03 0.04 0.06 0.10 0.16 0.22 0.18 0.09 0.04 0.03 0.02 0.02 0.02 0.04 0.05 0.05 0.07 0.12 0.14 0.13 0.12 0.15 0.20 0.24 0.26 0.28 0.28 0.29 0.28 0.29 0.30 0.34 0.42 0.51 0.55 0.55 0.51
0.05 0.04 0.04 0.03 0.03 0.03 0.04 0.05 0.10 0.17 0.29 0.36 0.26 0.14 0.08 0.06 0.07 0.07 0.05 0.06 0.08 0.08 0.09 0.11 0.13 0.12 0.10 0.12 0.18 0.19 0.17 0.19 0.20 0.18 0.14 0.14 0.19 0.22 0.25 0.29 0.38 0.50 0.53
0.07 0.06 0.05 0.04 0.05 0.04 0.06 0.08 0.14 0.25 0.39 0.43 0.34 0.19 0.13 0.11 0.13 0.14 0.11 0.11 0.12 0.12 0.13 0.13 0.16 0.17 0.13 0.18 0.23 0.21 0.14 0.15 0.14 0.09 0.09 0.11 0.16 0.18 0.15 0.15 0.21 0.32 0.39
0.12 0.11 0.11 0.10 0.10 0.10 0.13 0.20 0.24 0.32 0.39 0.39 0.35 0.28 0.23 0.22 0.21 0.19 0.20 0.21 0.23 0.22 0.20 0.17 0.18 0.21 0.25 0.21 0.17 0.17 0.15 0.14 0.12 0.11 0.12 0.14 0.14 0.18 0.14 0.12 0.13 0.15 0.17
0.15 0.16 0.16 0.16 0.17 0.18 0.19 0.28 0.32 0.32 0.35 0.42 0.42 0.36 0.31 0.28 0.28 0.27 0.28 0.35 0.34 0.30 0.30 0.27 0.23 0.24 0.30 0.21 0.12 0.11 0.11 0.12 0.15 0.14 0.14 0.16 0.14 0.12 0.16 0.20 0.23 0.22 0.19
0.12 0.12 0.12 0.11 0.11 0.10 0.09 0.12 0.16 0.20 0.24 0.27 0.32 0.31 0.26 0.27 0.31 0.30 0.35 0.38 0.37 0.40 0.39 0.37 0.33 0.32 0.30 0.20 0.11 0.10 0.10 0.11 0.13 0.13 0.13 0.14 0.12 0.14 0.19 0.30 0.40 0.38 0.34
0.03 0.03 0.03 0.03 0.03 0.02 0.02 0.03 0.04 0.06 0.08 0.09 0.13 0.18 0.19 0.22 0.27 0.36 0.41 0.38 0.36 0.39 0.39 0.35 0.29 0.29 0.27 0.26 0.12 0.11 0.12 0.10 0.11 0.15 0.20 0.24 0.20 0.21 0.19 0.21 0.32 0.34 0.33
0.00 0.00 0.00 0.01 0.01 0.01 0.01 0.02 0.02 0.02 0.02 0.02 0.04 0.07 0.11 0.16 0.25 0.32 0.30 0.30 0.32 0.34 0.33 0.34 0.32 0.29 0.32 0.37 0.31 0.23 0.20 0.18 0.19 0.24 0.31 0.31 0.28 0.19 0.15 0.16 0.21 0.23 0.28
0.00 0.00 0.00 0.00 0.00 0.00 0.00 0.00 0.00 0.00 0.00 0.00 0.01 0.02 0.04 0.07 0.12 0.19 0.22 0.24 0.28 0.28 0.26 0.27 0.26 0.27 0.35 0.40 0.37 0.32 0.27 0.23 0.22 0.26 0.26 0.24 0.24 0.16 0.12 0.10 0.13 0.12 0.12
0.00 0.00 0.00 0.00 0.00 0.00 0.00 0.00 0.00 0.00 0.00 0.00 0.00 0.00 0.01 0.02 0.05 0.11 0.16 0.20 0.26 0.28 0.25 0.23 0.23 0.25 0.28 0.32 0.31 0.29 0.24 0.18 0.20 0.18 0.17 0.16 0.11 0.08 0.07 0.07 0.08 0.07 0.09
0.00 0.00 0.00 0.00 0.00 0.00 0.00 0.00 0.00 0.00 0.00 0.00 0.00 0.00 0.00 0.01 0.02 0.05 0.12 0.21 0.24 0.22 0.23 0.23 0.24 0.26 0.29 0.29 0.26 0.26 0.26 0.19 0.15 0.11 0.06 0.05 0.03 0.05 0.07 0.07 0.05 0.07 0.12
0.00 0.00 0.00 0.00 0.00 0.00 0.00 0.00 0.00 0.00 0.00 0.00 0.00 0.00 0.00 0.00 0.01 0.02 0.06 0.12 0.15 0.14 0.17 0.22 0.26 0.30 0.32 0.28 0.23 0.21 0.25 0.27 0.28 0.25 0.15 0.10 0.08 0.07 0.09 0.10 0.08 0.08 0.10
0.00 0.00 0.00 0.00 0.00 0.00 0.00 0.00 0.00 0.00 0.00 0.00 0.00 0.00 0.00 0.00 0.00 0.01 0.02 0.05 0.05 0.07 0.07 0.09 0.13 0.12 0.12 0.12 0.11 0.10 0.11 0.15 0.18 0.27 0.33 0.33 0.34 0.32 0.29 0.25 0.18 0.15 0.14

GEFSMW_prec_meanprecacc_030.txt.gz
Total_Precipitation_Accumulation
0.05 0.04 0.03 0.02 0.00 0.00 0.01 0.04 0.07 0.14 0.23 0.39 0.65 0.97 1.10 1.11 1.10 1.15 1.00 0.77 0.53 0.49 0.45 0.36 0.36 0.37 0.42 0.42 0.34 0.33 0.24 0.14 0.06 0.05 0.06 0.02 0.00 0.00 0.00 0.00 0.00 0.00 0.00
0.05 0.04 0.03 0.03 0.01 0.01 0.01 0.05 0.06 0.11 0.20 0.38 0.59 0.86 1.01 0.95 0.90 0.95 0.95 0.85 0.69 0.64 0.65 0.61 0.58 0.58 0.66 0.66 0.58 0.59 0.48 0.31 0.17 0.18 0.23 0.11 0.03 0.01 0.00 0.00 0.00 0.00 0.00
0.04 0.03 0.02 0.02 0.02 0.02 0.03 0.06 0.09 0.15 0.27 0.45 0.58 0.60 0.67 0.66 0.71 0.75 0.80 0.85 0.81 0.74 0.71 0.72 0.71 0.69 0.69 0.74 0.79 0.77 0.69 0.53 0.35 0.26 0.28 0.27 0.20 0.05 0.00 0.00 0.00 0.00 0.00
0.02 0.01 0.01 0.02 0.02 0.03 0.04 0.06 0.09 0.16 0.28 0.41 0.43 0.39 0.43 0.47 0.46 0.52 0.61 0.68 0.73 0.76 0.79 0.78 0.82 0.79 0.70 0.73 0.83 0.85 0.85 0.76 0.57 0.40 0.28 0.22 0.18 0.10 0.04 0.01 0.00 0.00 0.00
0.01 0.01 0.02 0.03 0.04 0.04 0.05 0.09 0.14 0.20 0.28 0.30 0.30 0.28 0.23 0.21 0.23 0.30 0.44 0.52 0.64 0.73 0.75 0.79 0.87 0.85 0.78 0.72 0.84 0.89 0.93 0.84 0.71 0.58 0.48 0.40 0.31 0.16 0.12 0.11 0.03 0.00 0.00
0.03 0.04 0.06 0.08 0.08 0.10 0.12 0.14 0.20 0.26 0.29 0.27 0.21 0.16 0.13 0.11 0.14 0.21 0.33 0.46 0.57 0.73 0.69 0.65 0.71 0.73 0.75 0.75 0.81 0.89 0.98 0.95 0.91 0.74 0.55 0.47 0.40 0.30 0.22 0.19 0.13 0.04 0.00
0.12 0.17 0.19 0.21 0.24 0.26 0.24 0.24 0.24 0.23 0.20 0.15 0.10 0.07 0.05 0.04 0.06 0.12 0.22 0.39 0.48 0.65 0.75 0.67 0.63 0.65 0.65 0.66 0.72 0.76 0.80 0.89 0.94 0.79 0.60 0.50 0.39 0.31 0.30 0.26 0.18 0.12 0.04
0.25 0.34 0.41 0.45 0.45 0.40 0.34 0.31 0.27 0.21 0.15 0.09 0.06 0.05 0.03 0.03 0.04 0.06 0.10 0.28 0.44 0.54 0.68 0.69 0.65 0.67 0.71 0.73 0.72 0.72 0.70 0.69 0.73 0.75 0.69 0.65 0.51 0.38 0.32 0.31 0.33 0.29 0.21
0.45 0.52 0.57 0.57 0.50 0.40 0.32 0.27 0.23 0.17 0.13 0.08 0.05 0.03 0.02 0.02 0.04 0.03 0.04 0.10 0.23 0.30 0.38 0.47 0.52 0.58 0.67 0.70 0.73 0.76 0.75 0.68 0.66 0.72 0.74 0.66 0.58 0.50 0.38 0.32 0.32 0.36 0.35
0.65 0.77 0.80 0.71 0.61 0.51 0.42 0.29 0.18 0.15 0.11 0.07 0.05 0.03 0.02 0.02 0.02 0.03 0.02 0.03 0.07 0.11 0.18 0.27 0.31 0.38 0.51 0.60 0.66 0.70 0.77 0.75 0.70 0.75 0.81 0.80 0.77 0.72 0.60 0.46 0.36 0.31 0.36
0.84 0.94 0.92 0.76 0.55 0.41 0.35 0.27 0.17 0.11 0.08 0.06 0.05 0.03 0.02 0.02 0.02 0.02 0.01 0.01 0.03 0.06 0.10 0.17 0.22 0.23 0.29 0.43 0.60 0.69 0.70 0.68 0.67 0.67 0.75 0.85 0.86 0.89 0.82 0.72 0.59 0.46 0.42
0.57 0.61 0.56 0.47 0.38 0.30 0.24 0.20 0.15 0.11 0.10 0.10 0.09 0.07 0.04 0.03 0.02 0.02 0.02 0.02 0.03 0.04 0.06 0.12 0.19 0.22 0.24 0.28 0.40 0.53 0.56 0.57 0.60 0.61 0.62 0.69 0.75 0.82 0.86 0.85 0.80 0.70 0.56
0.25 0.26 0.24 0.20 0.19 0.18 0.17 0.17 0.17 0.20 0.23 0.23 0.22 0.18 0.11 0.06 0.03 0.03 0.04 0.04 0.04 0.04 0.05 0.09 0.16 0.22 0.22 0.23 0.26 0.33 0.40 0.42 0.43 0.45 0.46 0.49 0.54 0.61 0.71 0.79 0.79 0.77 0.71
0.13 0.13 0.13 0.12 0.10 0.10 0.11 0.14 0.20 0.27 0.38 0.44 0.38 0.26 0.16 0.09 0.06 0.05 0.05 0.06 0.06 0.06 0.07 0.12 0.14 0.13 0.12 0.15 0.21 0.24 0.27 0.28 0.28 0.29 0.28 0.30 0.32 0.37 0.47 0.61 0.72 0.78 0.79
0.11 0.11 0.10 0.10 0.09 0.08 0.10 0.13 0.20 0.31 0.47 0.57 0.46 0.31 0.19 0.14 0.12 0.11 0.10 0.10 0.11 0.10 0.11 0.13 0.14 0.13 0.11 0.13 0.19 0.20 0.18 0.20 0.21 0.18 0.14 0.15 0.20 0.24 0.28 0.35 0.48 0.65 0.73
0.13 0.13 0.12 0.11 0.12 0.11 0.11 0.14 0.21 0.35 0.53 0.61 0.51 0.33 0.22 0.18 0.19 0.20 0.17 0.16 0.16 0.15 0.16 0.16 0.18 0.19 0.15 0.22 0.26 0.23 0.15 0.15 0.14 0.10 0.09 0.11 0.17 0.18 0.16 0.18 0.26 0.40 0.52
0.17 0.17 0.16 0.15 0.14 0.14 0.17 0.24 0.28 0.40 0.49 0.51 0.47 0.36 0.29 0.28 0.26 0.25 0.25 0.25 0.26 0.25 0.22 0.20 0.21 0.23 0.29 0.26 0.20 0.20 0.16 0.16 0.14 0.12 0.12 0.14 0.14 0.18 0.15 0.13 0.15 0.18 0.22
0.18 0.19 0.19 0.19 0.20 0.20 0.22 0.31 0.36 0.37 0.42 0.49 0.48 0.41 0.36 0.32 0.31 0.30 0.30 0.37 0.36 0.33 0.32 0.30 0.25 0.26 0.34 0.27 0.17 0.17 0.14 0.17 0.19 0.16 0.15 0.17 0.14 0.13 0.16 0.21 0.23 0.24 0.22
0.12 0.13 0.13 0.12 0.12 0.11 0.11 0.13 0.17 0.22 0.26 0.30 0.34 0.33 0.28 0.29 0.32 0.31 0.36 0.39 0.38 0.41 0.40 0.38 0.34 0.34 0.34 0.26 0.17 0.16 0.15 0.18 0.19 0.15 0.15 0.15 0.13 0.15 0.20 0.30 0.41 0.39 0.35
0.03 0.03 0.03 0.03 0.03 0.02 0.03 0.04 0.05 0.06 0.08 0.10 0.14 0.18 0.19 0.22 0.27 0.36 0.41 0.38 0.36 0.40 0.39 0.36 0.30 0.31 0.30 0.32 0.18 0.18 0.18 0.16 0.16 0.19 0.23 0.27 0.22 0.23 0.20 0.22 0.32 0.35 0.34
0.00 0.00 0.00 0.01 0.01 0.01 0.01 0.02 0.02 0.02 0.02 0.02 0.04 0.07 0.11 0.16 0.25 0.32 0.30 0.30 0.32 0.34 0.33 0.35 0.33 0.31 0.36 0.42 0.37 0.33 0.28 0.26 0.25 0.28 0.35 0.35 0.33 0.23 0.18 0.17 0.21 0.24 0.29
0.00 0.00 0.00 0.00 0.00 0.00 0.00 0.00 0.00 0.00 0.00 0.00 0.01 0.02 0.04 0.07 0.12 0.19 0.22 0.24 0.28 0.28 0.27 0.27 0.27 0.29 0.37 0.43 0.43 0.39 0.36 0.34 0.30 0.32 0.32 0.29 0.28 0.20 0.14 0.12 0.14 0.13 0.13
0.00 0.00 0.00 0.00 0.00 0.00 0.00 0.00 0.00 0.00 0.00 0.00 0.00 0.00 0.01 0.02 0.05 0.11 0.16 0.20 0.26 0.28 0.26 0.23 0.24 0.26 0.29 0.34 0.35 0.34 0.30 0.26 0.27 0.24 0.22 0.19 0.14 0.10 0.08 0.09 0.09 0.08 0.10
0.00 0.00 0.00 0.00 0.00 0.00 0.00 0.00 0.00 0.00 0.00 0.00 0.00 0.00 0.00 0.01 0.02 0.05 0.12 0.21 0.24 0.22 0.23 0.24 0.24 0.27 0.30 0.29 0.27 0.28 0.29 0.23 0.21 0.16 0.11 0.08 0.05 0.06 0.08 0.08 0.06 0.08 0.13
0.00 0.00 0.00 0.00 0.00 0.00 0.00 0.00 0.00 0.00 0.00 0.00 0.00 0.00 0.00 0.00 0.01 0.02 0.06 0.12 0.15 0.14 0.17 0.22 0.26 0.30 0.32 0.28 0.24 0.23 0.27 0.29 0.31 0.29 0.19 0.13 0.10 0.09 0.11 0.12 0.11 0.11 0.13
0.00 0.00 0.00 0.00 0.00 0.00 0.00 0.00 0.00 0.00 0.00 0.00 0.00 0.00 0.00 0.00 0.00 0.01 0.02 0.05 0.05 0.07 0.08 0.09 0.13 0.13 0.12 0.12 0.12 0.12 0.14 0.17 0.20 0.29 0.35 0.36 0.37 0.34 0.32 0.28 0.22 0.18 0.17

GEFSMW_prec_meanprecacc_036.txt.gz
Total_Precipitation_Accumulation
0.07 0.08 0.09 0.08 0.05 0.02 0.02 0.04 0.07 0.15 0.25 0.42 0.68 1.01 1.15 1.16 1.14 1.17 1.02 0.78 0.57 0.58 0.64 0.61 0.59 0.53 0.55 0.53 0.42 0.39 0.29 0.17 0.07 0.07 0.08 0.03 0.01 0.01 0.00 0.00 0.00 0.00 0.00
0.06 0.05 0.06 0.08 0.06 0.04 0.02 0.05 0.07 0.14 0.26 0.45 0.69 0.96 1.12 1.04 0.99 1.01 0.99 0.89 0.76 0.76 0.80 0.85 0.85 0.82 0.89 0.87 0.73 0.71 0.59 0.38 0.20 0.22 0.28 0.15 0.05 0.01 0.00 0.00 0.00 0.00 0.00
0.04 0.04 0.03 0.04 0.06 0.06 0.05 0.07 0.10 0.20 0.39 0.61 0.80 0.83 0.87 0.86 0.88 0.86 0.90 0.94 0.90 0.83 0.83 0.89 0.92 0.90 0.91 0.99 1.03 0.96 0.86 0.67 0.42 0.30 0.33 0.32 0.25 0.09 0.01 0.00 0.00 0.00 0.00
0.02 0.02 0.02 0.03 0.05 0.06 0.07 0.08 0.12 0.26 0.46 0.64 0.72 0.74 0.81 0.83 0.75 0.73 0.78 0.80 0.82 0.84 0.87 0.87 0.93 0.92 0.83 0.88 0.99 0.99 1.00 0.92 0.70 0.48 0.34 0.28 0.25 0.17 0.09 0.03 0.00 0.00 0.00
0.01 0.01 0.02 0.04 0.05 0.06 0.08 0.13 0.22 0.36 0.50 0.61 0.72 0.80 0.74 0.64 0.57 0.51 0.59 0.63 0.71 0.78 0.81 0.84 0.93 0.91 0.85 0.79 0.92 0.97 1.02 0.95 0.85 0.70 0.60 0.51 0.41 0.24 0.19 0.17 0.06 0.01 0.00
0.03 0.05 0.06 0.09 0.09 0.12 0.16 0.22 0.33 0.46 0.60 0.67 0.71 0.69 0.66 0.57 0.49 0.41 0.44 0.54 0.63 0.77 0.72 0.68 0.75 0.78 0.79 0.79 0.85 0.93 1.02 1.02 1.00 0.85 0.67 0.59 0.53 0.41 0.30 0.25 0.18 0.07 0.01
0.12 0.18 0.21 0.23 0.29 0.34 0.36 0.41 0.47 0.53 0.58 0.58 0.54 0.46 0.43 0.38 0.33 0.31 0.33 0.46 0.52 0.68 0.77 0.68 0.65 0.67 0.66 0.67 0.73 0.78 0.82 0.92 0.99 0.86 0.69 0.64 0.52 0.43 0.41 0.34 0.24 0.17 0.07
0.25 0.36 0.44 0.51 0.56 0.57 0.56 0.59 0.61 0.57 0.52 0.48 0.44 0.38 0.32 0.27 0.24 0.22 0.21 0.35 0.48 0.56 0.69 0.70 0.66 0.68 0.72 0.74 0.73 0.73 0.71 0.70 0.75 0.79 0.77 0.77 0.64 0.50 0.42 0.40 0.43 0.38 0.28
0.46 0.56 0.64 0.66 0.63 0.59 0.55 0.55 0.54 0.49 0.45 0.43 0.37 0.31 0.27 0.23 0.21 0.16 0.13 0.15 0.25 0.31 0.39 0.47 0.52 0.59 0.67 0.70 0.74 0.77 0.76 0.69 0.68 0.75 0.78 0.72 0.66 0.60 0.48 0.43 0.44 0.47 0.44
0.70 0.83 0.89 0.82 0.71 0.66 0.63 0.52 0.44 0.44 0.41 0.37 0.33 0.27 0.21 0.17 0.15 0.12 0.08 0.06 0.08 0.12 0.18 0.27 0.31 0.38 0.51 0.60 0.66 0.71 0.78 0.76 0.72 0.77 0.84 0.84 0.82 0.80 0.69 0.56 0.48 0.42 0.45
0.93 1.03 1.03 0.89 0.67 0.56 0.56 0.51 0.42 0.36 0.32 0.30 0.29 0.25 0.18 0.13 0.10 0.08 0.06 0.03 0.04 0.07 0.10 0.17 0.22 0.23 0.29 0.43 0.60 0.69 0.70 0.69 0.68 0.69 0.77 0.87 0.90 0.94 0.89 0.81 0.68 0.56 0.51
0.72 0.76 0.70 0.64 0.57 0.47 0.39 0.38 0.38 0.32 0.29 0.30 0.30 0.26 0.17 0.11 0.08 0.06 0.05 0.03 0.04 0.04 0.06 0.12 0.19 0.22 0.24 0.28 0.40 0.53 0.57 0.58 0.61 0.62 0.63 0.72 0.80 0.88 0.93 0.92 0.88 0.81 0.68
0.45 0.50 0.51 0.44 0.41 0.35 0.32 0.36 0.39 0.41 0.43 0.42 0.40 0.34 0.22 0.15 0.10 0.07 0.06 0.05 0.05 0.05 0.05 0.09 0.16 0.22 0.22 0.23 0.26 0.33 0.40 0.43 0.44 0.46 0.47 0.51 0.58 0.68 0.79 0.87 0.87 0.88 0.84
0.37 0.41 0.44 0.41 0.38 0.31 0.31 0.35 0.38 0.44 0.56 0.61 0.56 0.41 0.28 0.17 0.12 0.09 0.07 0.07 0.07 0.07 0.09 0.14 0.15 0.14 0.12 0.16 0.21 0.25 0.27 0.28 0.28 0.29 0.29 0.31 0.34 0.41 0.53 0.67 0.79 0.88 0.92
0.30 0.30 0.29 0.29 0.32 0.30 0.28 0.31 0.35 0.46 0.62 0.73 0.62 0.45 0.31 0.23 0.18 0.16 0.13 0.13 0.14 0.13 0.14 0.15 0.16 0.14 0.13 0.15 0.20 0.21 0.18 0.20 0.21 0.18 0.14 0.15 0.20 0.25 0.30 0.37 0.53 0.72 0.84
0.23 0.22 0.19 0.19 0.21 0.21 0.21 0.23 0.29 0.45 0.66 0.75 0.64 0.44 0.32 0.26 0.24 0.24 0.21 0.19 0.19 0.18 0.19 0.19 0.21 0.23 0.18 0.25 0.28 0.24 0.17 0.16 0.15 0.11 0.09 0.12 0.17 0.19 0.17 0.19 0.28 0.43 0.58
0.20 0.20 0.19 0.17 0.16 0.17 0.19 0.26 0.31 0.44 0.55 0.58 0.52 0.40 0.33 0.30 0.29 0.27 0.27 0.27 0.28 0.26 0.25 0.22 0.24 0.27 0.33 0.30 0.22 0.22 0.19 0.20 0.17 0.15 0.15 0.15 0.15 0.18 0.15 0.14 0.16 0.20 0.24
0.19 0.19 0.19 0.19 0.21 0.21 0.23 0.32 0.37 0.38 0.43 0.51 0.49 0.42 0.36 0.33 0.32 0.30 0.31 0.38 0.37 0.34 0.33 0.32 0.27 0.29 0.37 0.29 0.19 0.19 0.17 0.22 0.25 0.21 0.18 0.19 0.16 0.13 0.17 0.21 0.25 0.25 0.23
0.12 0.13 0.13 0.12 0.12 0.12 0.11 0.13 0.17 0.22 0.27 0.30 0.34 0.33 0.28 0.29 0.32 0.31 0.36 0.39 0.39 0.42 0.41 0.39 0.36 0.36 0.36 0.28 0.19 0.20 0.22 0.28 0.29 0.21 0.19 0.19 0.16 0.17 0.22 0.31 0.43 0.41 0.35
0.03 0.03 0.03 0.03 0.03 0.02 0.03 0.04 0.05 0.06 0.08 0.10 0.14 0.18 0.19 0.22 0.27 0.36 0.41 0.39 0.36 0.40 0.40 0.36 0.31 0.32 0.32 0.34 0.21 0.23 0.27 0.28 0.28 0.26 0.29 0.34 0.28 0.27 0.23 0.23 0.35 0.39 0.36
0.00 0.00 0.00 0.01 0.01 0.01 0.01 0.02 0.02 0.02 0.02 0.02 0.04 0.07 0.11 0.16 0.25 0.32 0.30 0.30 0.32 0.34 0.33 0.35 0.33 0.32 0.37 0.45 0.41 0.39 0.36 0.36 0.36 0.37 0.43 0.42 0.41 0.27 0.21 0.19 0.22 0.26 0.30
0.00 0.00 0.00 0.00 0.00 0.00 0.00 0.00 0.00 0.00 0.00 0.00 0.01 0.02 0.04 0.07 0.12 0.19 0.22 0.24 0.28 0.28 0.27 0.27 0.27 0.29 0.38 0.45 0.45 0.44 0.43 0.43 0.38 0.40 0.38 0.36 0.37 0.26 0.18 0.14 0.17 0.15 0.14
0.00 0.00 0.00 0.00 0.00 0.00 0.00 0.00 0.00 0.00 0.00 0.00 0.00 0.00 0.01 0.02 0.05 0.11 0.16 0.20 0.26 0.28 0.26 0.23 0.24 0.26 0.29 0.35 0.37 0.36 0.34 0.31 0.32 0.30 0.29 0.25 0.19 0.14 0.11 0.11 0.11 0.10 0.11
0.00 0.00 0.00 0.00 0.00 0.00 0.00 0.00 0.00 0.00 0.00 0.00 0.00 0.00 0.00 0.01 0.02 0.05 0.12 0.21 0.24 0.22 0.23 0.24 0.25 0.27 0.30 0.30 0.28 0.29 0.30 0.26 0.26 0.22 0.19 0.14 0.10 0.09 0.10 0.10 0.08 0.09 0.14
0.00 0.00 0.00 0.00 0.00 0.00 0.00 0.00 0.00 0.00 0.00 0.00 0.00 0.00 0.00 0.00 0.01 0.02 0.06 0.12 0.15 0.14 0.17 0.22 0.26 0.30 0.32 0.29 0.24 0.24 0.27 0.30 0.33 0.32 0.23 0.17 0.14 0.12 0.14 0.15 0.14 0.13 0.16
0.00 0.00 0.00 0.00 0.00 0.00 0.00 0.00 0.00 0.00 0.00 0.00 0.00 0.00 0.00 0.00 0.00 0.01 0.02 0.05 0.05 0.07 0.08 0.09 0.13 0.13 0.12 0.13 0.12 0.12 0.14 0.18 0.21 0.31 0.37 0.38 0.40 0.38 0.35 0.30 0.24 0.20 0.19

GEFSMW_prec_meanprecacc_042.txt.gz
Total_Precipitation_Accumulation
0.09 0.10 0.10 0.10 0.07 0.04 0.03 0.06 0.08 0.15 0.26 0.44 0.71 1.05 1.20 1.23 1.20 1.21 1.04 0.81 0.60 0.62 0.71 0.69 0.65 0.59 0.61 0.56 0.43 0.43 0.34 0.21 0.09 0.12 0.12 0.04 0.01 0.01 0.00 0.00 0.00 0.00 0.00
0.07 0.06 0.06 0.08 0.07 0.04 0.03 0.07 0.09 0.15 0.28 0.49 0.73 1.01 1.19 1.14 1.11 1.13 1.08 0.96 0.83 0.83 0.87 0.97 1.01 0.94 0.99 0.96 0.81 0.84 0.76 0.49 0.27 0.32 0.43 0.26 0.12 0.03 0.00 0.00 0.00 0.00 0.00
0.04 0.04 0.03 0.05 0.06 0.06 0.05 0.08 0.12 0.23 0.43 0.68 0.92 1.02 1.14 1.13 1.11 1.07 1.09 1.07 0.99 0.92 0.94 1.04 1.09 1.02 1.04 1.13 1.16 1.10 1.06 0.84 0.54 0.39 0.45 0.45 0.39 0.20 0.05 0.01 0.00 0.00 0.00
0.02 0.02 0.02 0.03 0.05 0.06 0.07 0.09 0.14 0.30 0.56 0.80 0.93 1.04 1.21 1.22 1.05 0.99 0.99 0.98 0.97 0.98 1.02 1.02 1.09 1.06 1.00 1.07 1.14 1.09 1.13 1.10 0.84 0.61 0.44 0.35 0.35 0.29 0.18 0.07 0.02 0.01 0.01
0.01 0.01 0.02 0.04 0.05 0.06 0.08 0.14 0.26 0.42 0.63 0.78 0.95 1.14 1.23 1.15 1.02 0.89 0.91 0.90 0.94 0.97 0.98 0.99 1.09 1.09 1.01 0.94 1.10 1.13 1.19 1.12 1.04 0.88 0.74 0.63 0.52 0.30 0.28 0.26 0.11 0.04 0.02
0.04 0.05 0.07 0.09 0.10 0.12 0.17 0.24 0.37 0.52 0.69 0.83 0.96 1.02 1.14 1.15 1.10 0.96 0.89 0.89 0.91 1.01 0.94 0.87 0.95 0.95 0.93 0.93 1.01 1.09 1.18 1.16 1.17 1.02 0.80 0.72 0.63 0.49 0.42 0.36 0.27 0.15 0.04
0.13 0.19 0.22 0.25 0.31 0.35 0.37 0.42 0.50 0.61 0.71 0.75 0.78 0.79 0.85 0.89 0.87 0.84 0.79 0.84 0.85 0.95 1.00 0.88 0.83 0.81 0.78 0.79 0.85 0.90 0.94 1.03 1.12 0.99 0.82 0.78 0.65 0.59 0.57 0.49 0.38 0.29 0.13
0.28 0.38 0.47 0.54 0.59 0.60 0.58 0.62 0.67 0.65 0.63 0.62 0.63 0.65 0.64 0.65 0.64 0.60 0.57 0.66 0.79 0.81 0.86 0.85 0.78 0.79 0.81 0.81 0.81 0.81 0.79 0.78 0.83 0.87 0.86 0.87 0.74 0.64 0.58 0.56 0.60 0.54 0.42
0.51 0.61 0.69 0.72 0.69 0.63 0.60 0.60 0.61 0.58 0.57 0.56 0.53 0.51 0.49 0.47 0.48 0.44 0.43 0.42 0.46 0.46 0.50 0.57 0.60 0.65 0.73 0.75 0.80 0.82 0.81 0.73 0.72 0.79 0.83 0.78 0.73 0.68 0.59 0.55 0.56 0.61 0.57
0.78 0.91 0.96 0.89 0.78 0.71 0.70 0.59 0.52 0.51 0.49 0.46 0.44 0.41 0.37 0.33 0.32 0.30 0.29 0.24 0.22 0.21 0.26 0.33 0.37 0.43 0.54 0.63 0.69 0.73 0.80 0.77 0.74 0.81 0.87 0.89 0.88 0.87 0.77 0.66 0.61 0.56 0.57
1.11 1.17 1.17 1.04 0.79 0.66 0.67 0.61 0.51 0.44 0.38 0.36 0.36 0.35 0.30 0.25 0.23 0.21 0.19 0.15 0.13 0.14 0.15 0.20 0.25 0.26 0.32 0.45 0.62 0.71 0.71 0.70 0.69 0.70 0.79 0.92 0.96 1.02 0.98 0.92 0.80 0.69 0.67
1.02 1.02 0.95 0.89 0.77 0.65 0.54 0.51 0.52 0.44 0.38 0.39 0.40 0.37 0.28 0.23 0.21 0.20 0.18 0.13 0.13 0.11 0.10 0.16 0.21 0.25 0.25 0.29 0.42 0.54 0.57 0.59 0.62 0.63 0.66 0.76 0.85 0.96 1.03 1.04 0.99 0.95 0.83
0.78 0.82 0.83 0.75 0.70 0.60 0.51 0.57 0.62 0.60 0.58 0.55 0.56 0.49 0.36 0.30 0.27 0.23 0.19 0.14 0.13 0.12 0.11 0.14 0.18 0.24 0.23 0.24 0.27 0.34 0.40 0.44 0.45 0.46 0.48 0.52 0.62 0.75 0.89 0.98 1.00 1.02 1.02
0.68 0.72 0.74 0.69 0.67 0.61 0.57 0.61 0.64 0.68 0.79 0.85 0.78 0.61 0.49 0.40 0.33 0.27 0.21 0.18 0.16 0.14 0.14 0.18 0.20 0.19 0.14 0.17 0.22 0.25 0.28 0.29 0.28 0.29 0.29 0.31 0.36 0.46 0.60 0.76 0.91 1.02 1.07
0.50 0.50 0.49 0.49 0.53 0.51 0.48 0.49 0.52 0.64 0.81 0.89 0.78 0.61 0.47 0.37 0.30 0.30 0.25 0.24 0.23 0.19 0.19 0.20 0.20 0.18 0.15 0.18 0.24 0.23 0.20 0.21 0.21 0.18 0.15 0.16 0.22 0.26 0.33 0.40 0.59 0.80 0.94
0.31 0.29 0.27 0.26 0.29 0.28 0.29 0.31 0.38 0.55 0.78 0.86 0.72 0.52 0.39 0.33 0.30 0.31 0.29 0.27 0.25 0.22 0.23 0.24 0.28 0.30 0.25 0.36 0.35 0.27 0.18 0.18 0.16 0.12 0.11 0.14 0.18 0.19 0.18 0.19 0.28 0.45 0.62
0.23 0.23 0.22 0.20 0.19 0.19 0.21 0.28 0.33 0.47 0.57 0.60 0.55 0.43 0.34 0.32 0.31 0.29 0.29 0.30 0.31 0.30 0.30 0.28 0.30 0.34 0.44 0.40 0.27 0.24 0.21 0.22 0.21 0.18 0.18 0.17 0.16 0.20 0.17 0.17 0.18 0.22 0.25
0.20 0.21 0.21 0.20 0.21 0.22 0.23 0.32 0.37 0.38 0.44 0.51 0.50 0.42 0.37 0.33 0.32 0.31 0.32 0.39 0.39 0.36 0.36 0.35 0.32 0.34 0.43 0.35 0.22 0.21 0.20 0.26 0.30 0.25 0.22 0.24 0.21 0.21 0.23 0.25 0.30 0.29 0.26
0.12 0.13 0.13 0.12 0.12 0.12 0.11 0.13 0.17 0.22 0.27 0.30 0.34 0.33 0.28 0.29 0.32 0.32 0.37 0.40 0.40 0.42 0.42 0.41 0.39 0.40 0.40 0.30 0.21 0.23 0.30 0.38 0.39 0.29 0.29 0.28 0.25 0.32 0.29 0.35 0.47 0.47 0.41
0.03 0.03 0.03 0.03 0.03 0.02 0.03 0.04 0.05 0.06 0.08 0.10 0.14 0.18 0.19 0.22 0.28 0.36 0.42 0.39 0.37 0.41 0.40 0.37 0.33 0.35 0.34 0.35 0.22 0.27 0.38 0.43 0.42 0.38 0.40 0.48 0.39 0.39 0.28 0.26 0.41 0.49 0.44
0.00 0.00 0.00 0.01 0.01 0.01 0.01 0.02 0.02 0.02 0.02 0.02 0.04 0.07 0.11 0.16 0.25 0.32 0.31 0.30 0.32 0.35 0.34 0.37 0.35 0.33 0.38 0.46 0.42 0.43 0.45 0.49 0.51 0.52 0.57 0.54 0.54 0.35 0.24 0.22 0.26 0.32 0.34
0.00 0.00 0.00 0.00 0.00 0.00 0.00 0.00 0.00 0.00 0.00 0.00 0.01 0.02 0.04 0.07 0.12 0.19 0.22 0.24 0.28 0.29 0.28 0.28 0.29 0.31 0.40 0.46 0.46 0.46 0.48 0.52 0.50 0.53 0.51 0.45 0.45 0.30 0.20 0.16 0.19 0.18 0.17
0.00 0.00 0.00 0.00 0.00 0.00 0.00 0.00 0.00 0.00 0.00 0.00 0.00 0.00 0.01 0.02 0.05 0.12 0.16 0.20 0.26 0.28 0.26 0.24 0.25 0.28 0.31 0.37 0.38 0.38 0.36 0.36 0.39 0.36 0.37 0.32 0.23 0.18 0.13 0.13 0.13 0.14 0.16
0.00 0.00 0.00 0.00 0.00 0.00 0.00 0.00 0.00 0.00 0.00 0.00 0.00 0.00 0.01 0.01 0.03 0.05 0.12 0.21 0.24 0.22 0.23 0.24 0.26 0.28 0.31 0.31 0.29 0.31 0.33 0.29 0.30 0.28 0.23 0.19 0.14 0.13 0.14 0.14 0.13 0.14 0.18
0.00 0.00 0.00 0.00 0.00 0.00 0.00 0.00 0.00 0.00 0.00 0.00 0.00 0.00 0.00 0.01 0.02 0.02 0.06 0.13 0.15 0.14 0.18 0.23 0.27 0.31 0.33 0.29 0.25 0.25 0.29 0.33 0.36 0.38 0.29 0.22 0.19 0.17 0.20 0.22 0.20 0.20 0.22
0.00 0.00 0.00 0.00 0.00 0.00 0.00 0.00 0.00 0.00 0.00 0.00 0.00 0.00 0.00 0.01 0.01 0.02 0.03 0.05 0.05 0.07 0.08 0.09 0.13 0.13 0.12 0.13 0.12 0.13 0.16 0.21 0.25 0.37 0.42 0.42 0.45 0.44 0.41 0.37 0.30 0.25 0.24

GEFSMW_prec_meanprecacc_048.txt.gz
Total_Precipitation_Accumulation
0.14 0.16 0.17 0.19 0.18 0.17 0.19 0.25 0.28 0.35 0.42 0.59 0.86 1.21 1.36 1.35 1.30 1.30 1.12 0.88 0.66 0.68 0.79 0.76 0.71 0.63 0.64 0.59 0.45 0.44 0.36 0.23 0.11 0.14 0.14 0.07 0.03 0.02 0.01 0.01 0.01 0.02 0.01
0.09 0.09 0.10 0.13 0.12 0.12 0.13 0.21 0.26 0.33 0.45 0.66 0.94 1.25 1.47 1.42 1.35 1.31 1.24 1.10 0.95 0.92 0.96 1.07 1.10 1.01 1.06 1.01 0.85 0.88 0.81 0.54 0.32 0.38 0.47 0.29 0.15 0.05 0.02 0.02 0.02 0.01 0.01
0.09 0.08 0.07 0.08 0.09 0.10 0.10 0.15 0.20 0.34 0.58 0.88 1.17 1.32 1.52 1.57 1.56 1.45 1.40 1.32 1.19 1.07 1.07 1.16 1.22 1.15 1.18 1.23 1.24 1.17 1.12 0.91 0.60 0.45 0.52 0.50 0.42 0.22 0.07 0.03 0.03 0.02 0.02
0.12 0.10 0.07 0.05 0.06 0.06 0.08 0.11 0.17 0.36 0.67 0.98 1.21 1.43 1.72 1.79 1.65 1.56 1.50 1.41 1.31 1.22 1.22 1.22 1.30 1.23 1.15 1.20 1.25 1.17 1.22 1.19 0.92 0.68 0.51 0.42 0.40 0.32 0.20 0.08 0.05 0.06 0.04
0.13 0.09 0.08 0.07 0.07 0.07 0.08 0.14 0.27 0.45 0.68 0.88 1.12 1.44 1.65 1.73 1.73 1.58 1.53 1.46 1.41 1.35 1.28 1.26 1.33 1.28 1.18 1.12 1.26 1.28 1.32 1.25 1.16 0.99 0.84 0.71 0.59 0.36 0.32 0.27 0.13 0.07 0.06
0.14 0.12 0.12 0.12 0.11 0.13 0.17 0.24 0.38 0.53 0.71 0.88 1.06 1.21 1.42 1.55 1.63 1.60 1.52 1.46 1.40 1.41 1.27 1.14 1.17 1.14 1.10 1.09 1.20 1.29 1.36 1.32 1.33 1.18 0.94 0.83 0.72 0.55 0.48 0.40 0.29 0.17 0.07
0.22 0.26 0.26 0.28 0.33 0.36 0.37 0.43 0.51 0.62 0.72 0.78 0.85 0.91 1.03 1.15 1.18 1.23 1.27 1.34 1.29 1.30 1.28 1.12 1.06 1.00 0.94 0.94 1.03 1.09 1.11 1.19 1.30 1.16 0.95 0.89 0.75 0.67 0.64 0.53 0.41 0.32 0.15
0.37 0.46 0.52 0.58 0.62 0.61 0.60 0.64 0.68 0.66 0.64 0.64 0.66 0.70 0.73 0.80 0.83 0.83 0.84 0.95 1.08 1.09 1.11 1.07 0.97 0.96 0.98 0.97 0.96 0.96 0.95 0.91 0.95 0.98 0.97 0.96 0.82 0.71 0.64 0.61 0.64 0.57 0.44
0.62 0.70 0.78 0.79 0.73 0.67 0.64 0.63 0.64 0.61 0.59 0.58 0.55 0.53 0.52 0.52 0.55 0.54 0.57 0.59 0.66 0.67 0.72 0.78 0.77 0.80 0.87 0.90 0.96 0.97 0.92 0.82 0.81 0.88 0.92 0.86 0.80 0.74 0.64 0.59 0.59 0.62 0.58
0.94 1.06 1.11 1.00 0.86 0.80 0.80 0.68 0.58 0.56 0.55 0.51 0.47 0.43 0.39 0.37 0.38 0.38 0.40 0.38 0.40 0.39 0.42 0.48 0.51 0.56 0.67 0.76 0.82 0.85 0.88 0.85 0.81 0.86 0.92 0.93 0.92 0.91 0.81 0.69 0.64 0.58 0.59
1.33 1.41 1.38 1.22 0.95 0.80 0.80 0.75 0.61 0.51 0.44 0.41 0.40 0.39 0.34 0.30 0.30 0.29 0.29 0.24 0.24 0.28 0.30 0.35 0.38 0.38 0.43 0.55 0.72 0.79 0.79 0.76 0.74 0.74 0.82 0.94 0.98 1.03 1.00 0.94 0.82 0.71 0.69
1.22 1.24 1.17 1.12 0.97 0.87 0.76 0.71 0.66 0.52 0.44 0.45 0.44 0.41 0.32 0.28 0.29 0.27 0.24 0.20 0.20 0.21 0.23 0.30 0.34 0.35 0.35 0.38 0.50 0.61 0.63 0.63 0.65 0.66 0.68 0.77 0.87 0.97 1.04 1.04 1.00 0.96 0.85
0.92 1.00 1.03 0.94 0.88 0.79 0.71 0.74 0.76 0.69 0.65 0.63 0.62 0.55 0.42 0.37 0.35 0.30 0.28 0.24 0.22 0.23 0.25 0.30 0.35 0.37 0.36 0.35 0.35 0.41 0.47 0.49 0.49 0.50 0.51 0.54 0.63 0.76 0.91 0.99 1.01 1.04 1.04
0.76 0.82 0.87 0.82 0.81 0.74 0.71 0.75 0.76 0.81 0.92 0.96 0.87 0.70 0.58 0.51 0.43 0.36 0.32 0.30 0.31 0.31 0.32 0.42 0.45 0.41 0.35 0.35 0.35 0.37 0.38 0.36 0.34 0.34 0.32 0.33 0.38 0.47 0.61 0.77 0.92 1.03 1.09
0.55 0.54 0.53 0.54 0.59 0.59 0.57 0.59 0.62 0.73 0.90 0.98 0.87 0.72 0.58 0.47 0.40 0.39 0.35 0.35 0.37 0.37 0.39 0.42 0.45 0.47 0.42 0.40 0.41 0.36 0.31 0.30 0.29 0.25 0.19 0.19 0.23 0.27 0.33 0.40 0.59 0.81 0.95
0.32 0.30 0.28 0.27 0.31 0.31 0.34 0.37 0.43 0.58 0.81 0.89 0.76 0.58 0.47 0.42 0.38 0.38 0.35 0.33 0.32 0.32 0.34 0.37 0.43 0.47 0.40 0.49 0.46 0.35 0.25 0.25 0.24 0.19 0.17 0.18 0.21 0.21 0.19 0.20 0.29 0.46 0.63
0.23 0.23 0.22 0.20 0.20 0.19 0.22 0.30 0.35 0.49 0.59 0.61 0.56 0.44 0.36 0.34 0.33 0.32 0.32 0.34 0.35 0.33 0.33 0.33 0.37 0.41 0.52 0.45 0.30 0.28 0.25 0.27 0.26 0.25 0.24 0.22 0.21 0.24 0.20 0.19 0.20 0.23 0.27
0.21 0.21 0.21 0.20 0.21 0.22 0.23 0.32 0.37 0.38 0.44 0.51 0.50 0.42 0.37 0.33 0.33 0.31 0.33 0.40 0.39 0.36 0.37 0.37 0.34 0.37 0.46 0.37 0.22 0.22 0.22 0.29 0.34 0.31 0.31 0.32 0.28 0.27 0.28 0.29 0.33 0.32 0.29
0.13 0.13 0.13 0.12 0.12 0.12 0.11 0.13 0.17 0.22 0.27 0.30 0.34 0.33 0.28 0.29 0.32 0.32 0.37 0.40 0.40 0.43 0.42 0.42 0.39 0.41 0.41 0.32 0.22 0.23 0.30 0.41 0.42 0.35 0.37 0.37 0.32 0.38 0.34 0.38 0.51 0.50 0.44
0.03 0.03 0.03 0.03 0.03 0.02 0.03 0.04 0.05 0.06 0.08 0.10 0.14 0.18 0.19 0.22 0.28 0.36 0.42 0.39 0.37 0.41 0.41 0.38 0.34 0.35 0.35 0.36 0.23 0.28 0.39 0.45 0.46 0.44 0.46 0.54 0.44 0.44 0.33 0.30 0.44 0.51 0.46
0.00 0.00 0.00 0.01 0.01 0.01 0.01 0.02 0.02 0.02 0.02 0.02 0.04 0.07 0.11 0.16 0.25 0.32 0.31 0.30 0.33 0.35 0.35 0.37 0.35 0.33 0.38 0.46 0.43 0.44 0.47 0.52 0.56 0.59 0.64 0.59 0.59 0.39 0.28 0.24 0.28 0.35 0.37
0.00 0.00 0.00 0.00 0.00 0.00 0.00 0.00 0.00 0.00 0.00 0.00 0.01 0.02 0.04 0.07 0.12 0.19 0.22 0.24 0.28 0.29 0.28 0.29 0.29 0.32 0.40 0.46 0.46 0.47 0.50 0.55 0.55 0.59 0.57 0.50 0.49 0.32 0.22 0.17 0.20 0.19 0.20
0.00 0.00 0.00 0.00 0.00 0.00 0.00 0.00 0.00 0.00 0.00 0.00 0.00 0.00 0.01 0.02 0.05 0.12 0.16 0.20 0.26 0.28 0.26 0.24 0.25 0.28 0.31 0.37 0.39 0.39 0.37 0.39 0.41 0.38 0.40 0.36 0.28 0.21 0.15 0.13 0.14 0.15 0.19
0.00 0.00 0.00 0.00 0.00 0.00 0.00 0.00 0.00 0.00 0.00 0.00 0.00 0.00 0.01 0.01 0.03 0.05 0.12 0.21 0.24 0.22 0.23 0.24 0.26 0.29 0.31 0.31 0.30 0.32 0.33 0.30 0.32 0.30 0.27 0.23 0.18 0.16 0.16 0.16 0.15 0.16 0.20
0.00 0.00 0.00 0.00 0.00 0.00 0.00 0.00 0.00 0.00 0.00 0.00 0.00 0.00 0.00 0.01 0.02 0.02 0.06 0.13 0.15 0.14 0.18 0.23 0.27 0.31 0.33 0.29 0.25 0.25 0.30 0.34 0.37 0.39 0.31 0.24 0.21 0.20 0.22 0.24 0.22 0.22 0.25
0.00 0.00 0.00 0.00 0.00 0.00 0.00 0.00 0.00 0.00 0.00 0.00 0.00 0.00 0.00 0.01 0.01 0.02 0.03 0.05 0.05 0.07 0.08 0.09 0.13 0.13 0.12 0.13 0.13 0.15 0.19 0.25 0.29 0.40 0.43 0.43 0.46 0.45 0.43 0.39 0.31 0.26 0.25

GEFSMW_prec_meanprecacc_054.txt.gz
Total_Precipitation_Accumulation
0.17 0.20 0.22 0.24 0.24 0.23 0.26 0.33 0.39 0.48 0.58 0.78 1.08 1.47 1.62 1.68 1.66 1.66 1.50 1.21 0.93 0.87 0.94 0.91 0.82 0.73 0.71 0.63 0.48 0.47 0.38 0.25 0.13 0.16 0.16 0.08 0.04 0.03 0.02 0.01 0.02 0.02 0.02
0.12 0.11 0.13 0.15 0.14 0.14 0.16 0.25 0.31 0.41 0.54 0.79 1.09 1.43 1.75 1.78 1.73 1.69 1.61 1.44 1.29 1.22 1.21 1.30 1.29 1.17 1.17 1.09 0.90 0.91 0.84 0.58 0.36 0.43 0.51 0.32 0.17 0.07 0.04 0.02 0.02 0.02 0.02
0.11 0.09 0.08 0.09 0.10 0.10 0.11 0.16 0.22 0.37 0.64 0.95 1.27 1.45 1.73 1.83 1.84 1.74 1.72 1.66 1.56 1.43 1.37 1.42 1.46 1.38 1.35 1.36 1.34 1.24 1.19 0.98 0.66 0.51 0.58 0.53 0.43 0.24 0.08 0.04 0.03 0.03 0.03
0.14 0.11 0.08 0.06 0.06 0.07 0.08 0.11 0.17 0.36 0.69 1.01 1.26 1.49 1.83 1.91 1.80 1.80 1.80 1.76 1.69 1.59 1.57 1.52 1.57 1.51 1.41 1.44 1.46 1.33 1.33 1.29 1.01 0.77 0.59 0.48 0.44 0.34 0.21 0.09 0.06 0.07 0.05
0.14 0.11 0.09 0.07 0.07 0.07 0.09 0.15 0.27 0.45 0.69 0.90 1.14 1.47 1.71 1.81 1.86 1.76 1.76 1.76 1.76 1.71 1.65 1.60 1.66 1.63 1.54 1.46 1.56 1.52 1.52 1.41 1.31 1.13 0.96 0.82 0.67 0.41 0.35 0.29 0.15 0.08 0.06
0.15 0.14 0.13 0.14 0.12 0.14 0.18 0.26 0.39 0.54 0.72 0.89 1.07 1.23 1.45 1.60 1.71 1.71 1.67 1.65 1.65 1.71 1.58 1.44 1.48 1.46 1.43 1.41 1.51 1.57 1.62 1.54 1.52 1.34 1.06 0.94 0.81 0.64 0.57 0.46 0.32 0.19 0.08
0.24 0.28 0.28 0.31 0.35 0.38 0.40 0.46 0.54 0.64 0.74 0.80 0.86 0.93 1.06 1.19 1.24 1.32 1.38 1.49 1.49 1.55 1.55 1.41 1.37 1.30 1.22 1.20 1.26 1.31 1.32 1.39 1.47 1.30 1.07 0.99 0.84 0.76 0.72 0.61 0.48 0.37 0.17
0.41 0.50 0.57 0.64 0.69 0.67 0.66 0.70 0.75 0.71 0.67 0.66 0.68 0.72 0.75 0.83 0.87 0.89 0.91 1.04 1.21 1.24 1.29 1.26 1.17 1.17 1.20 1.19 1.18 1.17 1.14 1.07 1.09 1.10 1.08 1.06 0.91 0.81 0.73 0.71 0.73 0.62 0.47
0.69 0.78 0.86 0.87 0.84 0.78 0.74 0.75 0.75 0.68 0.63 0.62 0.58 0.55 0.53 0.54 0.58 0.59 0.62 0.65 0.74 0.77 0.84 0.94 0.96 0.97 1.04 1.08 1.14 1.16 1.08 0.95 0.92 0.98 1.01 0.94 0.89 0.84 0.74 0.69 0.67 0.70 0.64
1.04 1.17 1.23 1.12 1.01 0.97 0.98 0.86 0.75 0.66 0.62 0.58 0.52 0.46 0.42 0.40 0.42 0.43 0.46 0.44 0.45 0.46 0.51 0.59 0.65 0.70 0.82 0.91 0.97 1.00 1.02 0.97 0.91 0.95 1.00 1.00 0.99 0.98 0.89 0.77 0.72 0.65 0.65
1.42 1.51 1.51 1.39 1.17 1.00 0.98 0.92 0.77 0.64 0.52 0.50 0.47 0.44 0.38 0.35 0.34 0.33 0.32 0.27 0.29 0.34 0.37 0.44 0.48 0.49 0.54 0.67 0.84 0.91 0.89 0.87 0.84 0.83 0.90 1.01 1.05 1.10 1.05 1.00 0.88 0.76 0.73
1.29 1.33 1.28 1.27 1.14 1.01 0.91 0.88 0.78 0.61 0.52 0.52 0.51 0.47 0.37 0.33 0.33 0.31 0.28 0.24 0.24 0.26 0.30 0.37 0.42 0.46 0.47 0.49 0.58 0.68 0.70 0.69 0.71 0.71 0.73 0.83 0.92 1.01 1.09 1.09 1.04 1.00 0.88
0.97 1.06 1.12 1.03 0.98 0.88 0.80 0.87 0.90 0.78 0.74 0.71 0.71 0.63 0.47 0.41 0.40 0.37 0.34 0.30 0.28 0.29 0.31 0.36 0.40 0.44 0.44 0.43 0.42 0.47 0.53 0.54 0.53 0.54 0.55 0.58 0.67 0.79 0.93 1.01 1.03 1.06 1.06
0.78 0.84 0.91 0.87 0.87 0.80 0.77 0.83 0.87 0.91 0.98 1.02 0.94 0.77 0.63 0.56 0.49 0.43 0.37 0.34 0.36 0.35 0.37 0.46 0.48 0.46 0.41 0.42 0.42 0.44 0.44 0.41 0.39 0.38 0.36 0.37 0.41 0.49 0.63 0.78 0.92 1.04 1.09
0.56 0.55 0.54 0.56 0.61 0.61 0.59 0.63 0.67 0.79 0.96 1.02 0.89 0.75 0.62 0.50 0.44 0.43 0.39 0.39 0.41 0.40 0.42 0.47 0.50 0.53 0.50 0.48 0.47 0.43 0.39 0.36 0.35 0.31 0.23 0.21 0.25 0.29 0.34 0.41 0.60 0.81 0.95
0.32 0.31 0.28 0.28 0.32 0.32 0.34 0.38 0.45 0.60 0.83 0.91 0.78 0.61 0.51 0.46 0.42 0.41 0.37 0.35 0.34 0.34 0.36 0.40 0.48 0.52 0.47 0.57 0.52 0.40 0.31 0.31 0.30 0.25 0.21 0.21 0.24 0.22 0.19 0.20 0.29 0.46 0.63
0.23 0.23 0.22 0.20 0.20 0.20 0.22 0.30 0.36 0.49 0.59 0.61 0.56 0.45 0.38 0.36 0.35 0.34 0.33 0.34 0.35 0.34 0.35 0.35 0.39 0.44 0.56 0.50 0.34 0.31 0.28 0.30 0.30 0.29 0.28 0.26 0.24 0.27 0.21 0.20 0.20 0.24 0.27
0.21 0.21 0.21 0.20 0.21 0.22 0.23 0.32 0.37 0.38 0.44 0.51 0.50 0.43 0.37 0.34 0.33 0.31 0.33 0.40 0.40 0.37 0.37 0.38 0.36 0.40 0.49 0.40 0.26 0.26 0.25 0.33 0.38 0.36 0.36 0.37 0.32 0.30 0.30 0.30 0.34 0.33 0.29
0.13 0.13 0.13 0.12 0.12 0.12 0.11 0.13 0.17 0.22 0.27 0.30 0.34 0.33 0.28 0.29 0.32 0.32 0.37 0.40 0.40 0.43 0.42 0.42 0.40 0.43 0.44 0.35 0.25 0.26 0.33 0.44 0.45 0.39 0.42 0.41 0.35 0.41 0.37 0.40 0.52 0.51 0.45
0.03 0.03 0.03 0.03 0.03 0.02 0.03 0.04 0.05 0.06 0.08 0.10 0.14 0.18 0.19 0.22 0.28 0.36 0.42 0.39 0.37 0.41 0.41 0.38 0.34 0.36 0.36 0.38 0.25 0.31 0.41 0.47 0.49 0.47 0.49 0.57 0.48 0.48 0.37 0.32 0.45 0.52 0.48
0.00 0.00 0.00 0.01 0.01 0.01 0.01 0.02 0.02 0.02 0.02 0.02 0.04 0.07 0.11 0.16 0.25 0.32 0.31 0.30 0.33 0.35 0.35 0.37 0.35 0.34 0.39 0.46 0.44 0.47 0.49 0.54 0.58 0.61 0.66 0.62 0.62 0.43 0.32 0.27 0.30 0.37 0.39
0.00 0.00 0.00 0.00 0.00 0.00 0.00 0.00 0.00 0.00 0.00 0.00 0.01 0.02 0.04 0.07 0.12 0.19 0.22 0.24 0.28 0.29 0.28 0.29 0.29 0.32 0.40 0.46 0.48 0.49 0.52 0.57 0.56 0.61 0.59 0.52 0.52 0.36 0.26 0.19 0.22 0.22 0.22
0.00 0.00 0.00 0.00 0.00 0.00 0.00 0.00 0.00 0.00 0.00 0.00 0.00 0.00 0.01 0.02 0.05 0.12 0.16 0.20 0.26 0.28 0.26 0.24 0.26 0.28 0.32 0.38 0.40 0.40 0.39 0.40 0.41 0.39 0.42 0.40 0.32 0.25 0.19 0.16 0.18 0.19 0.20
0.00 0.00 0.00 0.00 0.00 0.00 0.00 0.00 0.00 0.00 0.00 0.00 0.00 0.00 0.01 0.01 0.03 0.05 0.12 0.21 0.24 0.22 0.23 0.24 0.26 0.29 0.32 0.32 0.31 0.33 0.34 0.31 0.32 0.31 0.29 0.25 0.21 0.20 0.20 0.19 0.17 0.18 0.23
0.00 0.00 0.00 0.00 0.00 0.00 0.00 0.00 0.00 0.00 0.00 0.00 0.00 0.00 0.00 0.01 0.02 0.02 0.06 0.13 0.15 0.14 0.18 0.23 0.27 0.31 0.33 0.29 0.26 0.26 0.31 0.34 0.38 0.40 0.32 0.26 0.24 0.22 0.24 0.26 0.23 0.23 0.27
0.00 0.00 0.00 0.00 0.00 0.00 0.00 0.00 0.00 0.00 0.00 0.00 0.00 0.00 0.00 0.01 0.01 0.02 0.03 0.05 0.05 0.07 0.08 0.09 0.13 0.13 0.13 0.13 0.13 0.16 0.20 0.26 0.30 0.41 0.44 0.45 0.48 0.47 0.44 0.40 0.32 0.27 0.26

GEFSMW_prec_meanprecacc_060.txt.gz
Total_Precipitation_Accumulation
0.17 0.20 0.22 0.25 0.24 0.23 0.26 0.33 0.39 0.49 0.60 0.81 1.13 1.54 1.74 1.83 1.84 1.86 1.74 1.49 1.23 1.17 1.20 1.12 1.04 0.93 0.87 0.76 0.58 0.54 0.45 0.31 0.17 0.21 0.22 0.12 0.05 0.03 0.02 0.02 0.02 0.03 0.02
0.12 0.11 0.13 0.15 0.14 0.14 0.16 0.25 0.32 0.41 0.54 0.80 1.11 1.45 1.80 1.88 1.86 1.84 1.79 1.66 1.53 1.47 1.45 1.55 1.55 1.42 1.40 1.31 1.04 1.01 0.93 0.65 0.41 0.50 0.62 0.41 0.24 0.11 0.05 0.03 0.03 0.03 0.03
0.11 0.09 0.08 0.09 0.10 0.10 0.11 0.17 0.22 0.37 0.64 0.96 1.27 1.46 1.74 1.86 1.91 1.83 1.83 1.84 1.79 1.67 1.63 1.68 1.75 1.66 1.60 1.60 1.54 1.39 1.34 1.11 0.75 0.60 0.69 0.63 0.52 0.33 0.11 0.04 0.04 0.04 0.04
0.14 0.11 0.08 0.06 0.07 0.07 0.08 0.12 0.18 0.37 0.70 1.02 1.26 1.50 1.84 1.93 1.84 1.87 1.88 1.89 1.88 1.82 1.84 1.80 1.85 1.79 1.69 1.70 1.69 1.53 1.52 1.47 1.14 0.87 0.66 0.54 0.52 0.44 0.29 0.13 0.07 0.08 0.06
0.14 0.11 0.10 0.08 0.08 0.08 0.09 0.16 0.28 0.47 0.71 0.91 1.15 1.49 1.73 1.83 1.89 1.81 1.85 1.86 1.90 1.88 1.87 1.89 1.97 1.91 1.80 1.72 1.81 1.72 1.69 1.57 1.45 1.25 1.06 0.91 0.74 0.47 0.43 0.38 0.21 0.11 0.07
0.16 0.15 0.14 0.14 0.14 0.15 0.20 0.27 0.42 0.57 0.76 0.92 1.10 1.26 1.48 1.62 1.74 1.75 1.73 1.73 1.76 1.82 1.72 1.65 1.72 1.72 1.69 1.66 1.73 1.77 1.79 1.71 1.69 1.50 1.20 1.07 0.93 0.74 0.67 0.56 0.42 0.27 0.12
0.25 0.29 0.30 0.33 0.39 0.42 0.43 0.50 0.59 0.69 0.79 0.86 0.91 0.97 1.10 1.23 1.28 1.37 1.45 1.57 1.56 1.62 1.63 1.52 1.50 1.46 1.39 1.38 1.44 1.47 1.46 1.52 1.61 1.46 1.23 1.15 0.98 0.87 0.83 0.72 0.58 0.45 0.23
0.42 0.52 0.60 0.68 0.73 0.71 0.70 0.76 0.81 0.78 0.75 0.77 0.78 0.80 0.83 0.88 0.93 0.95 0.96 1.09 1.26 1.29 1.34 1.32 1.24 1.26 1.30 1.31 1.32 1.32 1.27 1.20 1.22 1.24 1.24 1.23 1.07 0.94 0.85 0.82 0.84 0.72 0.55
0.70 0.81 0.90 0.92 0.91 0.87 0.82 0.81 0.82 0.79 0.77 0.75 0.70 0.63 0.60 0.61 0.67 0.67 0.70 0.71 0.80 0.83 0.89 0.99 1.00 1.02 1.10 1.17 1.25 1.28 1.22 1.10 1.06 1.13 1.16 1.09 1.03 0.96 0.85 0.79 0.78 0.79 0.72
1.06 1.19 1.26 1.17 1.09 1.07 1.10 0.97 0.86 0.78 0.75 0.71 0.66 0.58 0.50 0.47 0.49 0.51 0.55 0.51 0.51 0.51 0.56 0.65 0.73 0.78 0.88 0.98 1.06 1.11 1.14 1.12 1.07 1.11 1.16 1.17 1.15 1.13 1.02 0.88 0.82 0.75 0.75
1.43 1.52 1.53 1.43 1.22 1.09 1.08 1.00 0.88 0.76 0.64 0.60 0.60 0.57 0.47 0.43 0.42 0.40 0.40 0.34 0.35 0.41 0.45 0.50 0.57 0.60 0.63 0.75 0.92 1.01 1.00 0.98 0.96 0.94 1.01 1.14 1.19 1.23 1.17 1.09 0.96 0.85 0.83
1.30 1.34 1.29 1.29 1.17 1.08 0.99 0.93 0.82 0.68 0.62 0.63 0.62 0.58 0.49 0.43 0.43 0.38 0.35 0.30 0.29 0.31 0.36 0.42 0.49 0.55 0.56 0.58 0.66 0.74 0.75 0.75 0.77 0.78 0.80 0.90 1.00 1.10 1.17 1.17 1.13 1.09 0.97
0.97 1.07 1.13 1.04 0.99 0.92 0.86 0.93 0.93 0.81 0.79 0.81 0.83 0.73 0.58 0.53 0.49 0.43 0.40 0.34 0.33 0.35 0.36 0.41 0.45 0.49 0.50 0.52 0.52 0.54 0.58 0.60 0.59 0.60 0.62 0.65 0.74 0.87 1.00 1.08 1.11 1.13 1.12
0.78 0.84 0.91 0.87 0.88 0.82 0.80 0.88 0.93 0.94 1.00 1.07 1.02 0.84 0.70 0.62 0.54 0.47 0.41 0.38 0.40 0.41 0.44 0.53 0.54 0.52 0.47 0.49 0.51 0.52 0.50 0.47 0.45 0.45 0.43 0.44 0.49 0.58 0.71 0.86 1.00 1.09 1.14
0.56 0.55 0.55 0.56 0.62 0.63 0.60 0.64 0.71 0.82 0.97 1.04 0.92 0.78 0.65 0.54 0.47 0.46 0.42 0.42 0.44 0.43 0.46 0.51 0.56 0.58 0.55 0.53 0.55 0.52 0.47 0.44 0.43 0.38 0.30 0.28 0.32 0.35 0.41 0.48 0.66 0.86 0.99
0.33 0.31 0.28 0.28 0.32 0.33 0.35 0.39 0.46 0.61 0.84 0.92 0.79 0.62 0.53 0.49 0.45 0.43 0.38 0.36 0.36 0.37 0.39 0.43 0.51 0.58 0.52 0.61 0.56 0.45 0.37 0.38 0.38 0.33 0.28 0.27 0.29 0.27 0.23 0.24 0.33 0.51 0.68
0.23 0.24 0.22 0.20 0.20 0.20 0.23 0.30 0.36 0.49 0.59 0.62 0.57 0.46 0.39 0.37 0.36 0.35 0.34 0.35 0.36 0.35 0.37 0.38 0.44 0.51 0.64 0.55 0.39 0.37 0.33 0.34 0.36 0.37 0.37 0.32 0.29 0.33 0.26 0.22 0.23 0.26 0.30
0.21 0.21 0.21 0.20 0.21 0.22 0.23 0.32 0.37 0.39 0.44 0.51 0.50 0.43 0.38 0.34 0.33 0.32 0.34 0.41 0.41 0.37 0.39 0.40 0.40 0.45 0.54 0.44 0.30 0.31 0.29 0.37 0.42 0.42 0.43 0.45 0.39 0.36 0.36 0.34 0.38 0.36 0.30
0.13 0.13 0.13 0.12 0.12 0.12 0.11 0.13 0.17 0.22 0.27 0.30 0.34 0.33 0.28 0.29 0.32 0.32 0.37 0.41 0.41 0.44 0.44 0.44 0.44 0.46 0.48 0.39 0.29 0.29 0.36 0.48 0.49 0.43 0.47 0.48 0.42 0.46 0.45 0.48 0.58 0.56 0.47
0.03 0.03 0.03 0.03 0.03 0.02 0.03 0.04 0.05 0.06 0.09 0.10 0.14 0.18 0.19 0.22 0.28 0.36 0.42 0.39 0.37 0.41 0.41 0.39 0.36 0.38 0.39 0.42 0.29 0.33 0.45 0.51 0.52 0.50 0.52 0.61 0.54 0.52 0.42 0.39 0.52 0.59 0.52
0.00 0.00 0.00 0.01 0.01 0.01 0.01 0.02 0.02 0.02 0.02 0.02 0.04 0.07 0.11 0.16 0.25 0.32 0.31 0.30 0.33 0.35 0.35 0.37 0.36 0.35 0.41 0.49 0.47 0.50 0.52 0.57 0.60 0.63 0.67 0.64 0.67 0.47 0.36 0.34 0.35 0.42 0.42
0.00 0.00 0.00 0.00 0.00 0.00 0.00 0.00 0.00 0.00 0.00 0.00 0.01 0.02 0.04 0.07 0.12 0.19 0.22 0.25 0.28 0.29 0.28 0.29 0.30 0.33 0.41 0.48 0.50 0.51 0.53 0.58 0.57 0.62 0.61 0.55 0.56 0.41 0.30 0.23 0.26 0.26 0.24
0.00 0.00 0.00 0.00 0.00 0.00 0.00 0.00 0.00 0.00 0.00 0.00 0.00 0.00 0.01 0.02 0.05 0.12 0.16 0.20 0.26 0.28 0.26 0.25 0.26 0.29 0.33 0.39 0.41 0.41 0.40 0.41 0.43 0.40 0.45 0.43 0.36 0.29 0.21 0.20 0.22 0.21 0.23
0.00 0.00 0.00 0.00 0.00 0.00 0.00 0.00 0.00 0.00 0.00 0.00 0.00 0.00 0.01 0.01 0.03 0.06 0.12 0.21 0.24 0.22 0.23 0.25 0.26 0.29 0.32 0.32 0.32 0.34 0.35 0.32 0.33 0.31 0.31 0.28 0.24 0.23 0.22 0.21 0.20 0.20 0.26
0.00 0.00 0.00 0.00 0.00 0.00 0.00 0.00 0.00 0.00 0.00 0.00 0.00 0.00 0.00 0.01 0.02 0.02 0.06 0.13 0.15 0.14 0.18 0.23 0.27 0.31 0.33 0.30 0.26 0.26 0.31 0.35 0.38 0.41 0.34 0.28 0.26 0.24 0.27 0.27 0.24 0.25 0.29
0.00 0.00 0.00 0.00 0.00 0.00 0.00 0.00 0.00 0.00 0.00 0.00 0.00 0.00 0.00 0.01 0.01 0.02 0.03 0.05 0.05 0.07 0.08 0.09 0.13 0.13 0.13 0.13 0.13 0.16 0.20 0.26 0.31 0.42 0.45 0.46 0.50 0.49 0.46 0.41 0.32 0.27 0.26